Wetterdaten: Donnerstag, 26.10.2023
Datum Zeit Temp. Aussen Temp. o. S. Temp +5cm Feuchte Auss Luftdruck Regen Sonnenschein Regendauer Solar Windben Empfang
26.10.2023 00:00 10,6 C 10,0 C 7,8 C 100 % 994,1 hPa 0,2 l/m 0 min 0 min 0 W/m 6,4 km/h (2 Bft) 97,87 %
26.10.2023 00:02 10,6 C 10,0 C 7,8 C 100 % 994,2 hPa 0,0 l/m 0 min 0 min 0 W/m 3,2 km/h (1 Bft) 10,00 %
26.10.2023 00:04 10,6 C 10,0 C 7,8 C 100 % 994,2 hPa 0,0 l/m 0 min 0 min 0 W/m 6,4 km/h (2 Bft) 90,00 %
26.10.2023 00:08 10,6 C 10,0 C 7,8 C 100 % 994,3 hPa 0,0 l/m 0 min 0 min 0 W/m 6,4 km/h (2 Bft) 91,57 %
26.10.2023 00:10 10,6 C 10,0 C 7,8 C 100 % 994,3 hPa 0,0 l/m 0 min 0 min 0 W/m 6,4 km/h (2 Bft) 61,11 %
26.10.2023 00:12 10,6 C 10,0 C 7,8 C 100 % 994,3 hPa 0,0 l/m 0 min 0 min 0 W/m 6,4 km/h (2 Bft) 97,87 %
26.10.2023 00:14 10,6 C 10,0 C 7,8 C 100 % 994,3 hPa 0,0 l/m 0 min 0 min 0 W/m 12,9 km/h (3 Bft) 97,87 %
26.10.2023 00:16 10,6 C 10,0 C 7,8 C 100 % 994,4 hPa 0,0 l/m 0 min 0 min 0 W/m 12,9 km/h (3 Bft) 97,87 %
26.10.2023 00:18 10,6 C 10,0 C 7,8 C 100 % 994,3 hPa 0,0 l/m 0 min 0 min 0 W/m 9,7 km/h (2 Bft) 97,87 %
26.10.2023 00:20 10,6 C 10,0 C 7,8 C 100 % 994,4 hPa 0,0 l/m 0 min 0 min 0 W/m 6,4 km/h (2 Bft) 97,83 %
26.10.2023 00:22 10,6 C 10,0 C 7,8 C 100 % 994,4 hPa 0,0 l/m 0 min 0 min 0 W/m 12,9 km/h (3 Bft) 97,87 %
26.10.2023 00:24 10,6 C 10,0 C 7,8 C 99 % 994,4 hPa 0,0 l/m 0 min 0 min 0 W/m 9,7 km/h (2 Bft) 95,74 %
26.10.2023 00:26 10,6 C 10,0 C 7,8 C 99 % 994,5 hPa 0,0 l/m 0 min 0 min 0 W/m 12,9 km/h (3 Bft) 97,87 %
26.10.2023 00:28 10,6 C 10,0 C 7,8 C 99 % 994,5 hPa 0,0 l/m 0 min 0 min 0 W/m 6,4 km/h (2 Bft) 97,87 %
26.10.2023 00:30 10,6 C 10,0 C 7,8 C 99 % 994,5 hPa 0,0 l/m 0 min 0 min 0 W/m 6,4 km/h (2 Bft) 93,62 %
26.10.2023 00:32 10,6 C 10,0 C 7,8 C 99 % 994,6 hPa 0,0 l/m 0 min 0 min 0 W/m 9,7 km/h (2 Bft) 95,65 %
26.10.2023 00:34 10,6 C 10,0 C 7,8 C 99 % 994,6 hPa 0,0 l/m 0 min 0 min 0 W/m 6,4 km/h (2 Bft) 95,74 %
26.10.2023 00:36 10,6 C 10,0 C 7,8 C 99 % 994,7 hPa 0,0 l/m 0 min 0 min 0 W/m 6,4 km/h (2 Bft) 95,74 %
26.10.2023 00:38 10,6 C 10,0 C 7,8 C 99 % 994,7 hPa 0,0 l/m 0 min 0 min 0 W/m 9,7 km/h (2 Bft) 95,74 %
26.10.2023 00:40 10,6 C 10,0 C 7,8 C 99 % 994,8 hPa 0,0 l/m 0 min 0 min 0 W/m 16,1 km/h (3 Bft) 93,62 %
26.10.2023 00:42 10,6 C 10,0 C 7,8 C 99 % 994,8 hPa 0,0 l/m 0 min 0 min 0 W/m 12,9 km/h (3 Bft) 91,49 %
26.10.2023 00:44 10,6 C 10,0 C 7,8 C 99 % 994,8 hPa 0,0 l/m 0 min 0 min 0 W/m 6,4 km/h (2 Bft) 95,74 %
26.10.2023 00:46 10,6 C 10,0 C 7,8 C 99 % 994,8 hPa 0,0 l/m 0 min 0 min 0 W/m 12,9 km/h (3 Bft) 95,65 %
26.10.2023 00:48 10,5 C 10,0 C 7,8 C 99 % 994,9 hPa 0,0 l/m 0 min 0 min 0 W/m 16,1 km/h (3 Bft) 93,62 %
26.10.2023 00:50 10,5 C 10,0 C 7,8 C 99 % 994,9 hPa 0,0 l/m 0 min 0 min 0 W/m 19,3 km/h (3 Bft) 95,74 %
26.10.2023 00:52 10,4 C 10,0 C 7,8 C 100 % 994,9 hPa 0,0 l/m 0 min 0 min 0 W/m 9,7 km/h (2 Bft) 93,62 %
26.10.2023 00:54 10,4 C 10,0 C 7,8 C 100 % 994,9 hPa 0,0 l/m 0 min 0 min 0 W/m 9,7 km/h (2 Bft) 95,74 %
26.10.2023 00:56 10,4 C 10,0 C 7,8 C 100 % 994,9 hPa 0,0 l/m 0 min 0 min 0 W/m 9,7 km/h (2 Bft) 95,74 %
26.10.2023 00:58 10,4 C 10,0 C 7,8 C 100 % 995,0 hPa 0,0 l/m 0 min 0 min 0 W/m 9,7 km/h (2 Bft) 95,74 %
26.10.2023 01:00 10,4 C 10,0 C 7,8 C 100 % 995,0 hPa 0,0 l/m 0 min 0 min 0 W/m 6,4 km/h (2 Bft) 95,65 %
26.10.2023 01:02 10,4 C 10,0 C 7,8 C 100 % 995,1 hPa 0,0 l/m 0 min 0 min 0 W/m 9,7 km/h (2 Bft) 95,74 %
26.10.2023 01:04 10,4 C 10,0 C 7,8 C 100 % 995,1 hPa 0,0 l/m 0 min 0 min 0 W/m 9,7 km/h (2 Bft) 94,00 %
26.10.2023 01:06 10,4 C 10,0 C 7,8 C 100 % 995,2 hPa 0,0 l/m 0 min 0 min 0 W/m 6,4 km/h (2 Bft) 91,49 %
26.10.2023 01:08 10,4 C 10,0 C 7,8 C 100 % 995,1 hPa 0,0 l/m 0 min 0 min 0 W/m 6,4 km/h (2 Bft) 95,74 %
26.10.2023 01:10 10,4 C 10,0 C 7,8 C 100 % 995,1 hPa 0,0 l/m 0 min 0 min 0 W/m 9,7 km/h (2 Bft) 95,74 %
26.10.2023 01:12 10,4 C 10,0 C 7,8 C 100 % 995,1 hPa 0,0 l/m 0 min 0 min 0 W/m 6,4 km/h (2 Bft) 95,74 %
26.10.2023 01:14 10,4 C 10,0 C 7,8 C 100 % 995,1 hPa 0,0 l/m 0 min 0 min 0 W/m 9,7 km/h (2 Bft) 95,65 %
26.10.2023 01:16 10,4 C 10,0 C 7,8 C 100 % 995,1 hPa 0,0 l/m 0 min 0 min 0 W/m 9,7 km/h (2 Bft) 93,62 %
26.10.2023 01:18 10,3 C 10,0 C 7,8 C 100 % 995,1 hPa 0,0 l/m 0 min 0 min 0 W/m 12,9 km/h (3 Bft) 95,74 %
26.10.2023 01:20 10,3 C 10,0 C 7,8 C 100 % 995,2 hPa 0,0 l/m 0 min 0 min 0 W/m 12,9 km/h (3 Bft) 91,49 %
26.10.2023 01:22 10,3 C 10,0 C 7,8 C 100 % 995,2 hPa 0,0 l/m 0 min 0 min 0 W/m 6,4 km/h (2 Bft) 95,74 %
26.10.2023 01:24 10,3 C 10,0 C 7,8 C 100 % 995,2 hPa 0,0 l/m 0 min 0 min 0 W/m 6,4 km/h (2 Bft) 97,87 %
26.10.2023 01:26 10,3 C 10,0 C 7,2 C 100 % 995,2 hPa 0,0 l/m 0 min 0 min 0 W/m 12,9 km/h (3 Bft) 95,74 %
26.10.2023 01:28 10,3 C 9,4 C 7,2 C 100 % 995,2 hPa 0,0 l/m 0 min 0 min 0 W/m 9,7 km/h (2 Bft) 97,83 %
26.10.2023 01:30 10,3 C 9,4 C 7,2 C 99 % 995,2 hPa 0,0 l/m 0 min 0 min 0 W/m 12,9 km/h (3 Bft) 100,00 %
26.10.2023 01:32 10,3 C 9,4 C 7,2 C 99 % 995,3 hPa 0,0 l/m 0 min 0 min 0 W/m 16,1 km/h (3 Bft) 100,00 %
26.10.2023 01:34 10,2 C 9,4 C 7,2 C 99 % 995,3 hPa 0,0 l/m 0 min 0 min 0 W/m 9,7 km/h (2 Bft) 100,00 %
26.10.2023 01:36 10,2 C 9,4 C 7,2 C 99 % 995,3 hPa 0,0 l/m 0 min 0 min 0 W/m 9,7 km/h (2 Bft) 95,74 %
26.10.2023 01:38 10,2 C 9,4 C 7,2 C 100 % 995,3 hPa 0,0 l/m 0 min 0 min 0 W/m 6,4 km/h (2 Bft) 100,00 %
26.10.2023 01:40 10,2 C 9,4 C 7,2 C 100 % 995,4 hPa 0,0 l/m 0 min 0 min 0 W/m 9,7 km/h (2 Bft) 100,00 %
26.10.2023 01:42 10,2 C 9,4 C 7,2 C 100 % 995,4 hPa 0,0 l/m 0 min 0 min 0 W/m 6,4 km/h (2 Bft) 97,87 %
26.10.2023 01:44 10,2 C 9,4 C 7,2 C 100 % 995,4 hPa 0,0 l/m 0 min 0 min 0 W/m 6,4 km/h (2 Bft) 97,87 %
26.10.2023 01:46 10,2 C 9,4 C 7,2 C 100 % 995,4 hPa 0,0 l/m 0 min 0 min 0 W/m 3,2 km/h (1 Bft) 100,00 %
26.10.2023 01:48 10,1 C 9,4 C 7,2 C 100 % 995,5 hPa 0,0 l/m 0 min 0 min 0 W/m 3,2 km/h (1 Bft) 100,00 %
26.10.2023 01:50 10,1 C 9,4 C 7,2 C 100 % 995,4 hPa 0,0 l/m 0 min 0 min 0 W/m 6,4 km/h (2 Bft) 100,00 %
26.10.2023 01:52 10,1 C 9,4 C 7,2 C 100 % 995,5 hPa 0,0 l/m 0 min 0 min 0 W/m 6,4 km/h (2 Bft) 97,87 %
26.10.2023 01:54 10,1 C 9,4 C 7,2 C 100 % 995,5 hPa 0,0 l/m 0 min 0 min 0 W/m 12,9 km/h (3 Bft) 97,87 %
26.10.2023 01:56 10,1 C 9,4 C 7,2 C 100 % 995,6 hPa 0,0 l/m 0 min 0 min 0 W/m 6,4 km/h (2 Bft) 100,00 %
26.10.2023 01:58 10,1 C 9,4 C 7,2 C 100 % 995,5 hPa 0,0 l/m 0 min 0 min 0 W/m 12,9 km/h (3 Bft) 97,87 %
26.10.2023 02:00 10,1 C 9,4 C 7,2 C 100 % 995,6 hPa 0,0 l/m 0 min 0 min 0 W/m 12,9 km/h (3 Bft) 100,00 %
26.10.2023 02:02 10,1 C 9,4 C 7,2 C 100 % 995,7 hPa 0,0 l/m 0 min 0 min 0 W/m 12,9 km/h (3 Bft) 97,87 %
26.10.2023 02:04 10,1 C 9,4 C 7,2 C 100 % 995,6 hPa 0,0 l/m 0 min 0 min 0 W/m 6,4 km/h (2 Bft) 98,00 %
26.10.2023 02:06 10,1 C 9,4 C 7,2 C 100 % 995,7 hPa 0,0 l/m 0 min 0 min 0 W/m 9,7 km/h (2 Bft) 97,87 %
26.10.2023 02:08 10,1 C 9,4 C 7,2 C 100 % 995,7 hPa 0,0 l/m 0 min 0 min 0 W/m 6,4 km/h (2 Bft) 97,83 %
26.10.2023 02:10 10,1 C 9,4 C 7,2 C 100 % 995,7 hPa 0,0 l/m 0 min 0 min 0 W/m 12,9 km/h (3 Bft) 97,87 %
26.10.2023 02:14 10,1 C 9,4 C 7,2 C 100 % 995,8 hPa 0,0 l/m 0 min 0 min 0 W/m 6,4 km/h (2 Bft) 100,00 %
26.10.2023 02:16 10,1 C 9,4 C 7,2 C 100 % 995,8 hPa 0,0 l/m 0 min 0 min 0 W/m 9,7 km/h (2 Bft) 97,87 %
26.10.2023 02:18 10,1 C 9,4 C 7,2 C 100 % 995,8 hPa 0,0 l/m 0 min 0 min 0 W/m 6,4 km/h (2 Bft) 95,74 %
26.10.2023 02:20 10,1 C 9,4 C 7,2 C 100 % 995,9 hPa 0,0 l/m 0 min 0 min 0 W/m 12,9 km/h (3 Bft) 97,83 %
26.10.2023 02:22 10,1 C 9,4 C 7,2 C 100 % 995,9 hPa 0,0 l/m 0 min 0 min 0 W/m 12,9 km/h (3 Bft) 95,74 %
26.10.2023 02:24 10,1 C 9,4 C 7,2 C 100 % 995,9 hPa 0,0 l/m 0 min 0 min 0 W/m 9,7 km/h (2 Bft) 97,87 %
26.10.2023 02:26 10,1 C 9,4 C 7,2 C 100 % 995,9 hPa 0,0 l/m 0 min 0 min 0 W/m 12,9 km/h (3 Bft) 97,87 %
26.10.2023 02:28 10,1 C 9,4 C 7,2 C 100 % 996,0 hPa 0,0 l/m 0 min 0 min 0 W/m 6,4 km/h (2 Bft) 97,87 %
26.10.2023 02:30 10,1 C 9,4 C 7,2 C 100 % 996,0 hPa 0,0 l/m 0 min 0 min 0 W/m 6,4 km/h (2 Bft) 97,87 %
26.10.2023 02:32 10,1 C 9,4 C 7,2 C 100 % 996,0 hPa 0,0 l/m 0 min 0 min 0 W/m 3,2 km/h (1 Bft) 97,83 %
26.10.2023 02:34 10,1 C 9,4 C 7,2 C 100 % 996,0 hPa 0,0 l/m 0 min 0 min 0 W/m 6,4 km/h (2 Bft) 97,87 %
26.10.2023 02:36 10,1 C 9,4 C 7,2 C 100 % 996,1 hPa 0,0 l/m 0 min 0 min 0 W/m 6,4 km/h (2 Bft) 100,00 %
26.10.2023 02:38 10,1 C 9,4 C 7,2 C 100 % 996,1 hPa 0,0 l/m 0 min 0 min 0 W/m 6,4 km/h (2 Bft) 100,00 %
26.10.2023 02:40 10,1 C 9,4 C 7,2 C 100 % 996,2 hPa 0,0 l/m 0 min 0 min 0 W/m 12,9 km/h (3 Bft) 100,00 %
26.10.2023 02:42 10,1 C 9,4 C 7,2 C 100 % 996,2 hPa 0,0 l/m 0 min 0 min 0 W/m 6,4 km/h (2 Bft) 100,00 %
26.10.2023 02:44 10,1 C 9,4 C 7,2 C 100 % 996,2 hPa 0,0 l/m 0 min 0 min 0 W/m 6,4 km/h (2 Bft) 100,00 %
26.10.2023 02:46 10,1 C 9,4 C 7,2 C 100 % 996,2 hPa 0,0 l/m 0 min 0 min 0 W/m 9,7 km/h (2 Bft) 100,00 %
26.10.2023 02:48 10,1 C 9,4 C 7,2 C 100 % 996,2 hPa 0,0 l/m 0 min 0 min 0 W/m 9,7 km/h (2 Bft) 100,00 %
26.10.2023 02:50 10,1 C 9,4 C 7,2 C 100 % 996,2 hPa 0,0 l/m 0 min 0 min 0 W/m 9,7 km/h (2 Bft) 100,00 %
26.10.2023 02:52 10,1 C 9,4 C 7,2 C 100 % 996,2 hPa 0,0 l/m 0 min 0 min 0 W/m 9,7 km/h (2 Bft) 100,00 %
26.10.2023 02:54 10,1 C 9,4 C 7,2 C 100 % 996,3 hPa 0,0 l/m 0 min 0 min 0 W/m 12,9 km/h (3 Bft) 100,00 %
26.10.2023 02:56 10,1 C 9,4 C 7,2 C 100 % 996,3 hPa 0,0 l/m 0 min 0 min 0 W/m 9,7 km/h (2 Bft) 100,00 %
26.10.2023 02:58 10,0 C 9,4 C 7,2 C 100 % 996,3 hPa 0,0 l/m 0 min 0 min 0 W/m 6,4 km/h (2 Bft) 100,00 %
26.10.2023 03:00 10,0 C 9,4 C 7,2 C 100 % 996,3 hPa 0,0 l/m 0 min 0 min 0 W/m 12,9 km/h (3 Bft) 100,00 %
26.10.2023 03:02 10,0 C 9,4 C 7,2 C 100 % 996,3 hPa 0,0 l/m 0 min 0 min 0 W/m 9,7 km/h (2 Bft) 100,00 %
26.10.2023 03:04 10,0 C 9,4 C 7,2 C 100 % 996,3 hPa 0,0 l/m 0 min 0 min 0 W/m 6,4 km/h (2 Bft) 100,00 %
26.10.2023 03:06 10,0 C 9,4 C 7,2 C 100 % 996,3 hPa 0,0 l/m 0 min 0 min 0 W/m 9,7 km/h (2 Bft) 97,83 %
26.10.2023 03:08 10,0 C 9,4 C 7,2 C 100 % 996,3 hPa 0,0 l/m 0 min 0 min 0 W/m 12,9 km/h (3 Bft) 95,74 %
26.10.2023 03:10 10,0 C 9,4 C 7,2 C 100 % 996,4 hPa 0,0 l/m 0 min 0 min 0 W/m 12,9 km/h (3 Bft) 97,87 %
26.10.2023 03:12 10,0 C 9,4 C 7,2 C 100 % 996,4 hPa 0,0 l/m 0 min 0 min 0 W/m 6,4 km/h (2 Bft) 97,87 %
26.10.2023 03:14 10,0 C 9,4 C 7,2 C 100 % 996,4 hPa 0,0 l/m 0 min 0 min 0 W/m 6,4 km/h (2 Bft) 100,00 %
26.10.2023 03:16 10,0 C 9,4 C 7,2 C 100 % 996,4 hPa 0,0 l/m 0 min 0 min 0 W/m 9,7 km/h (2 Bft) 97,87 %
26.10.2023 03:18 9,9 C 9,4 C 7,2 C 100 % 996,4 hPa 0,0 l/m 0 min 0 min 0 W/m 6,4 km/h (2 Bft) 100,00 %
26.10.2023 03:20 9,9 C 9,4 C 7,2 C 100 % 996,4 hPa 0,0 l/m 0 min 0 min 0 W/m 6,4 km/h (2 Bft) 100,00 %
26.10.2023 03:22 9,9 C 9,4 C 7,2 C 99 % 996,4 hPa 0,0 l/m 0 min 0 min 0 W/m 12,9 km/h (3 Bft) 100,00 %
26.10.2023 03:24 9,8 C 9,4 C 7,2 C 99 % 996,5 hPa 0,0 l/m 0 min 0 min 0 W/m 12,9 km/h (3 Bft) 97,87 %
26.10.2023 03:26 9,8 C 9,4 C 7,2 C 99 % 996,5 hPa 0,0 l/m 0 min 0 min 0 W/m 6,4 km/h (2 Bft) 97,87 %
26.10.2023 03:28 9,8 C 9,4 C 7,2 C 99 % 996,5 hPa 0,0 l/m 0 min 0 min 0 W/m 6,4 km/h (2 Bft) 95,74 %
26.10.2023 03:30 9,8 C 9,4 C 7,2 C 99 % 996,5 hPa 0,0 l/m 0 min 0 min 0 W/m 6,4 km/h (2 Bft) 97,87 %
26.10.2023 03:32 9,7 C 9,4 C 7,2 C 100 % 996,5 hPa 0,0 l/m 0 min 0 min 0 W/m 12,9 km/h (3 Bft) 97,87 %
26.10.2023 03:34 9,7 C 9,4 C 7,2 C 100 % 996,6 hPa 0,0 l/m 0 min 0 min 0 W/m 6,4 km/h (2 Bft) 93,62 %
26.10.2023 03:36 9,7 C 9,4 C 7,2 C 100 % 996,6 hPa 0,0 l/m 0 min 0 min 0 W/m 9,7 km/h (2 Bft) 95,65 %
26.10.2023 03:38 9,7 C 9,4 C 7,2 C 100 % 996,6 hPa 0,0 l/m 0 min 0 min 0 W/m 19,3 km/h (3 Bft) 93,62 %
26.10.2023 03:40 9,6 C 9,4 C 6,7 C 100 % 996,6 hPa 0,0 l/m 0 min 0 min 0 W/m 6,4 km/h (2 Bft) 95,74 %
26.10.2023 03:42 9,6 C 9,4 C 6,7 C 100 % 996,6 hPa 0,0 l/m 0 min 0 min 0 W/m 6,4 km/h (2 Bft) 95,74 %
26.10.2023 03:44 9,6 C 9,4 C 6,7 C 100 % 996,7 hPa 0,0 l/m 0 min 0 min 0 W/m 9,7 km/h (2 Bft) 97,87 %
26.10.2023 03:46 9,6 C 9,4 C 6,7 C 100 % 996,7 hPa 0,0 l/m 0 min 0 min 0 W/m 9,7 km/h (2 Bft) 93,62 %
26.10.2023 03:48 9,6 C 9,4 C 6,7 C 99 % 996,8 hPa 0,0 l/m 0 min 0 min 0 W/m 6,4 km/h (2 Bft) 95,65 %
26.10.2023 03:50 9,6 C 9,4 C 7,2 C 99 % 996,7 hPa 0,0 l/m 0 min 0 min 0 W/m 6,4 km/h (2 Bft) 50,00 %
26.10.2023 03:52 9,5 C 9,4 C 6,7 C 99 % 996,7 hPa 0,0 l/m 0 min 0 min 0 W/m 6,4 km/h (2 Bft) 95,74 %
26.10.2023 03:54 9,5 C 9,4 C 6,7 C 99 % 996,7 hPa 0,0 l/m 0 min 0 min 0 W/m 6,4 km/h (2 Bft) 93,62 %
26.10.2023 03:56 9,5 C 9,4 C 6,7 C 99 % 996,7 hPa 0,0 l/m 0 min 0 min 0 W/m 9,7 km/h (2 Bft) 89,36 %
26.10.2023 03:58 9,5 C 9,4 C 6,7 C 99 % 996,7 hPa 0,0 l/m 0 min 0 min 0 W/m 6,4 km/h (2 Bft) 91,49 %
26.10.2023 04:00 9,5 C 9,4 C 6,7 C 99 % 996,6 hPa 0,0 l/m 0 min 0 min 0 W/m 9,7 km/h (2 Bft) 91,49 %
26.10.2023 04:02 9,5 C 9,4 C 6,7 C 99 % 996,7 hPa 0,0 l/m 0 min 0 min 0 W/m 12,9 km/h (3 Bft) 89,13 %
26.10.2023 04:04 9,5 C 9,4 C 6,7 C 99 % 996,7 hPa 0,0 l/m 0 min 0 min 0 W/m 6,4 km/h (2 Bft) 92,86 %
26.10.2023 04:06 9,5 C 9,4 C 7,2 C 99 % 996,6 hPa 0,0 l/m 0 min 0 min 0 W/m 6,4 km/h (2 Bft) 92,45 %
26.10.2023 04:08 9,5 C 9,4 C 7,2 C 99 % 996,6 hPa 0,0 l/m 0 min 0 min 0 W/m 6,4 km/h (2 Bft) 95,74 %
26.10.2023 04:10 9,5 C 9,4 C 6,7 C 99 % 996,6 hPa 0,0 l/m 0 min 0 min 0 W/m 6,4 km/h (2 Bft) 95,74 %
26.10.2023 04:12 9,5 C 9,4 C 6,7 C 99 % 996,6 hPa 0,0 l/m 0 min 0 min 0 W/m 6,4 km/h (2 Bft) 93,62 %
26.10.2023 04:14 9,5 C 9,4 C 6,7 C 99 % 996,6 hPa 0,0 l/m 0 min 0 min 0 W/m 6,4 km/h (2 Bft) 95,74 %
26.10.2023 04:16 9,5 C 9,4 C 6,7 C 99 % 996,6 hPa 0,0 l/m 0 min 0 min 0 W/m 12,9 km/h (3 Bft) 97,83 %
26.10.2023 04:18 9,5 C 9,4 C 6,7 C 99 % 996,6 hPa 0,0 l/m 0 min 0 min 0 W/m 25,7 km/h (4 Bft) 95,74 %
26.10.2023 04:20 9,5 C 9,4 C 6,7 C 99 % 996,6 hPa 0,0 l/m 0 min 0 min 0 W/m 9,7 km/h (2 Bft) 93,62 %
26.10.2023 04:22 9,5 C 9,4 C 6,7 C 99 % 996,7 hPa 0,0 l/m 0 min 0 min 0 W/m 16,1 km/h (3 Bft) 95,74 %
26.10.2023 04:24 9,5 C 9,4 C 6,7 C 99 % 996,6 hPa 0,0 l/m 0 min 0 min 0 W/m 12,9 km/h (3 Bft) 97,87 %
26.10.2023 04:26 9,5 C 9,4 C 6,7 C 99 % 996,6 hPa 0,0 l/m 0 min 0 min 0 W/m 12,9 km/h (3 Bft) 97,87 %
26.10.2023 04:28 9,5 C 9,4 C 6,7 C 99 % 996,7 hPa 0,0 l/m 0 min 0 min 0 W/m 9,7 km/h (2 Bft) 100,00 %
26.10.2023 04:30 9,5 C 9,4 C 6,7 C 99 % 996,7 hPa 0,0 l/m 0 min 0 min 0 W/m 6,4 km/h (2 Bft) 100,00 %
26.10.2023 04:32 9,5 C 9,4 C 6,7 C 99 % 996,8 hPa 0,0 l/m 0 min 0 min 0 W/m 9,7 km/h (2 Bft) 97,87 %
26.10.2023 04:34 9,5 C 9,4 C 6,7 C 99 % 996,8 hPa 0,0 l/m 0 min 0 min 0 W/m 9,7 km/h (2 Bft) 97,87 %
26.10.2023 04:36 9,5 C 8,9 C 6,7 C 99 % 996,9 hPa 0,0 l/m 0 min 0 min 0 W/m 3,2 km/h (1 Bft) 100,00 %
26.10.2023 04:38 9,5 C 8,9 C 6,7 C 99 % 996,9 hPa 0,0 l/m 0 min 0 min 0 W/m 9,7 km/h (2 Bft) 97,87 %
26.10.2023 04:40 9,5 C 8,9 C 6,7 C 99 % 996,9 hPa 0,0 l/m 0 min 0 min 0 W/m 9,7 km/h (2 Bft) 100,00 %
26.10.2023 04:42 9,5 C 8,9 C 6,7 C 99 % 996,9 hPa 0,0 l/m 0 min 0 min 0 W/m 6,4 km/h (2 Bft) 100,00 %
26.10.2023 04:44 9,5 C 9,4 C 6,7 C 99 % 996,9 hPa 0,0 l/m 0 min 0 min 0 W/m 6,4 km/h (2 Bft) 97,87 %
26.10.2023 04:46 9,5 C 9,4 C 6,7 C 99 % 996,9 hPa 0,0 l/m 0 min 0 min 0 W/m 6,4 km/h (2 Bft) 100,00 %
26.10.2023 04:48 9,5 C 9,4 C 6,7 C 99 % 996,9 hPa 0,0 l/m 0 min 0 min 0 W/m 6,4 km/h (2 Bft) 100,00 %
26.10.2023 04:50 9,5 C 9,4 C 6,7 C 99 % 996,9 hPa 0,0 l/m 0 min 0 min 0 W/m 6,4 km/h (2 Bft) 100,00 %
26.10.2023 04:52 9,5 C 9,4 C 6,7 C 99 % 996,9 hPa 0,0 l/m 0 min 0 min 0 W/m 9,7 km/h (2 Bft) 100,00 %
26.10.2023 04:54 9,5 C 9,4 C 6,7 C 99 % 996,9 hPa 0,0 l/m 0 min 0 min 0 W/m 12,9 km/h (3 Bft) 100,00 %
26.10.2023 04:56 9,5 C 9,4 C 6,7 C 99 % 997,0 hPa 0,0 l/m 0 min 0 min 0 W/m 6,4 km/h (2 Bft) 100,00 %
26.10.2023 04:58 9,5 C 9,4 C 6,7 C 99 % 997,0 hPa 0,0 l/m 0 min 0 min 0 W/m 9,7 km/h (2 Bft) 100,00 %
26.10.2023 05:00 9,5 C 9,4 C 6,7 C 99 % 996,9 hPa 0,0 l/m 0 min 0 min 0 W/m 6,4 km/h (2 Bft) 100,00 %
26.10.2023 05:02 9,5 C 9,4 C 6,7 C 99 % 996,9 hPa 0,0 l/m 0 min 0 min 0 W/m 12,9 km/h (3 Bft) 97,87 %
26.10.2023 05:04 9,5 C 9,4 C 6,7 C 99 % 996,8 hPa 0,0 l/m 0 min 0 min 0 W/m 6,4 km/h (2 Bft) 97,67 %
26.10.2023 05:06 9,5 C 9,4 C 6,7 C 99 % 996,8 hPa 0,0 l/m 0 min 0 min 0 W/m 12,9 km/h (3 Bft) 100,00 %
26.10.2023 05:08 9,5 C 9,4 C 6,7 C 99 % 996,9 hPa 0,0 l/m 0 min 0 min 0 W/m 6,4 km/h (2 Bft) 95,74 %
26.10.2023 05:10 9,5 C 9,4 C 6,7 C 99 % 996,9 hPa 0,0 l/m 0 min 0 min 0 W/m 6,4 km/h (2 Bft) 100,00 %
26.10.2023 05:12 9,5 C 9,4 C 6,7 C 99 % 997,0 hPa 0,0 l/m 0 min 0 min 0 W/m 6,4 km/h (2 Bft) 100,00 %
26.10.2023 05:14 9,5 C 8,9 C 6,7 C 99 % 997,0 hPa 0,0 l/m 0 min 0 min 0 W/m 9,7 km/h (2 Bft) 100,00 %
26.10.2023 05:16 9,5 C 8,9 C 6,7 C 99 % 997,1 hPa 0,0 l/m 0 min 0 min 0 W/m 6,4 km/h (2 Bft) 97,87 %
26.10.2023 05:18 9,5 C 8,9 C 6,7 C 99 % 997,0 hPa 0,0 l/m 0 min 0 min 0 W/m 12,9 km/h (3 Bft) 97,87 %
26.10.2023 05:20 9,6 C 8,9 C 6,7 C 99 % 997,0 hPa 0,0 l/m 0 min 0 min 0 W/m 9,7 km/h (2 Bft) 100,00 %
26.10.2023 05:22 9,6 C 8,9 C 6,7 C 99 % 996,9 hPa 0,0 l/m 0 min 0 min 0 W/m 6,4 km/h (2 Bft) 95,74 %
26.10.2023 05:24 9,6 C 8,9 C 6,7 C 99 % 996,9 hPa 0,0 l/m 0 min 0 min 0 W/m 9,7 km/h (2 Bft) 97,87 %
26.10.2023 05:26 9,5 C 8,9 C 6,7 C 99 % 997,0 hPa 0,0 l/m 0 min 0 min 0 W/m 12,9 km/h (3 Bft) 100,00 %
26.10.2023 05:28 9,6 C 8,9 C 6,7 C 99 % 996,9 hPa 0,0 l/m 0 min 0 min 0 W/m 9,7 km/h (2 Bft) 95,65 %
26.10.2023 05:30 9,6 C 8,9 C 6,7 C 99 % 997,0 hPa 0,0 l/m 0 min 0 min 0 W/m 6,4 km/h (2 Bft) 100,00 %
26.10.2023 05:32 9,6 C 8,9 C 6,7 C 99 % 997,0 hPa 0,0 l/m 0 min 0 min 0 W/m 6,4 km/h (2 Bft) 100,00 %
26.10.2023 05:34 9,6 C 8,9 C 6,7 C 99 % 996,9 hPa 0,0 l/m 0 min 0 min 0 W/m 6,4 km/h (2 Bft) 97,87 %
26.10.2023 05:36 9,6 C 8,9 C 6,7 C 99 % 996,9 hPa 0,0 l/m 0 min 0 min 0 W/m 12,9 km/h (3 Bft) 100,00 %
26.10.2023 05:38 9,6 C 8,9 C 6,7 C 99 % 997,0 hPa 0,0 l/m 0 min 0 min 0 W/m 6,4 km/h (2 Bft) 97,87 %
26.10.2023 05:40 9,6 C 8,9 C 6,7 C 99 % 997,0 hPa 0,0 l/m 0 min 0 min 0 W/m 6,4 km/h (2 Bft) 97,87 %
26.10.2023 05:42 9,6 C 8,9 C 6,7 C 99 % 997,0 hPa 0,0 l/m 0 min 0 min 0 W/m 3,2 km/h (1 Bft) 97,83 %
26.10.2023 05:44 9,6 C 8,9 C 6,7 C 99 % 997,0 hPa 0,0 l/m 0 min 0 min 0 W/m 3,2 km/h (1 Bft) 93,62 %
26.10.2023 05:46 9,6 C 8,9 C 6,7 C 99 % 997,0 hPa 0,0 l/m 0 min 0 min 0 W/m 3,2 km/h (1 Bft) 97,87 %
26.10.2023 05:48 9,6 C 8,9 C 6,7 C 99 % 997,0 hPa 0,0 l/m 0 min 0 min 0 W/m 6,4 km/h (2 Bft) 97,87 %
26.10.2023 05:50 9,6 C 8,9 C 6,7 C 99 % 997,0 hPa 0,0 l/m 0 min 0 min 0 W/m 3,2 km/h (1 Bft) 91,49 %
26.10.2023 05:52 9,6 C 8,9 C 6,7 C 99 % 997,0 hPa 0,0 l/m 0 min 0 min 0 W/m 9,7 km/h (2 Bft) 93,62 %
26.10.2023 05:54 9,6 C 8,9 C 6,7 C 99 % 996,9 hPa 0,0 l/m 0 min 0 min 0 W/m 6,4 km/h (2 Bft) 95,74 %
26.10.2023 05:56 9,6 C 8,9 C 6,7 C 99 % 996,9 hPa 0,0 l/m 0 min 0 min 0 W/m 6,4 km/h (2 Bft) 93,48 %
26.10.2023 05:58 9,6 C 8,9 C 6,7 C 99 % 997,0 hPa 0,0 l/m 0 min 0 min 0 W/m 6,4 km/h (2 Bft) 95,74 %
26.10.2023 06:00 9,6 C 8,9 C 6,7 C 99 % 997,0 hPa 0,0 l/m 0 min 0 min 0 W/m 6,4 km/h (2 Bft) 93,62 %
26.10.2023 06:02 9,6 C 8,9 C 6,7 C 99 % 997,0 hPa 0,0 l/m 0 min 0 min 0 W/m 9,7 km/h (2 Bft) 95,74 %
26.10.2023 06:04 9,6 C 8,9 C 6,7 C 99 % 997,0 hPa 0,0 l/m 0 min 0 min 0 W/m 3,2 km/h (1 Bft) 96,00 %
26.10.2023 06:08 9,6 C 8,9 C 6,7 C 99 % 997,0 hPa 0,0 l/m 0 min 0 min 0 W/m 9,7 km/h (2 Bft) 95,70 %
26.10.2023 06:10 9,6 C 8,9 C 6,7 C 99 % 997,0 hPa 0,0 l/m 0 min 0 min 0 W/m 3,2 km/h (1 Bft) 95,74 %
26.10.2023 06:12 9,6 C 8,9 C 6,7 C 99 % 996,9 hPa 0,0 l/m 0 min 0 min 0 W/m 6,4 km/h (2 Bft) 95,74 %
26.10.2023 06:14 9,6 C 8,9 C 6,7 C 99 % 997,0 hPa 0,0 l/m 0 min 0 min 0 W/m 6,4 km/h (2 Bft) 97,87 %
26.10.2023 06:16 9,6 C 8,9 C 6,7 C 99 % 997,0 hPa 0,0 l/m 0 min 0 min 0 W/m 6,4 km/h (2 Bft) 97,87 %
26.10.2023 06:18 9,6 C 8,9 C 6,7 C 99 % 997,1 hPa 0,0 l/m 0 min 0 min 0 W/m 6,4 km/h (2 Bft) 95,74 %
26.10.2023 06:20 9,6 C 8,9 C 6,7 C 99 % 997,1 hPa 0,0 l/m 0 min 0 min 0 W/m 3,2 km/h (1 Bft) 100,00 %
26.10.2023 06:22 9,6 C 8,9 C 6,7 C 99 % 997,1 hPa 0,0 l/m 0 min 0 min 0 W/m 3,2 km/h (1 Bft) 97,87 %
26.10.2023 06:24 9,6 C 8,9 C 6,7 C 99 % 997,1 hPa 0,0 l/m 0 min 0 min 0 W/m 3,2 km/h (1 Bft) 94,83 %
26.10.2023 06:26 9,6 C 8,9 C 6,7 C 99 % 997,0 hPa 0,0 l/m 0 min 0 min 0 W/m 9,7 km/h (2 Bft) 97,87 %
26.10.2023 06:28 9,6 C 8,9 C 6,7 C 99 % 997,0 hPa 0,0 l/m 0 min 0 min 0 W/m 9,7 km/h (2 Bft) 97,87 %
26.10.2023 06:30 9,6 C 8,9 C 6,7 C 99 % 997,0 hPa 0,0 l/m 0 min 0 min 0 W/m 6,4 km/h (2 Bft) 100,00 %
26.10.2023 06:32 9,6 C 8,9 C 6,7 C 99 % 996,9 hPa 0,0 l/m 0 min 0 min 0 W/m 9,7 km/h (2 Bft) 98,31 %
26.10.2023 06:34 9,6 C 8,9 C 6,7 C 99 % 996,9 hPa 0,0 l/m 0 min 0 min 0 W/m 3,2 km/h (1 Bft) 97,87 %
26.10.2023 06:36 9,6 C 8,9 C 6,7 C 99 % 996,9 hPa 0,0 l/m 0 min 0 min 0 W/m 3,2 km/h (1 Bft) 97,14 %
26.10.2023 06:38 9,6 C 8,9 C 6,7 C 99 % 996,9 hPa 0,0 l/m 0 min 0 min 0 W/m 3,2 km/h (1 Bft) 97,87 %
26.10.2023 06:40 9,6 C 8,9 C 6,7 C 99 % 996,9 hPa 0,0 l/m 0 min 0 min 0 W/m 3,2 km/h (1 Bft) 95,74 %
26.10.2023 06:42 9,5 C 8,9 C 6,7 C 99 % 996,9 hPa 0,0 l/m 0 min 0 min 0 W/m 6,4 km/h (2 Bft) 100,00 %
26.10.2023 06:44 9,6 C 8,9 C 6,7 C 99 % 996,9 hPa 0,0 l/m 0 min 0 min 0 W/m 3,2 km/h (1 Bft) 97,87 %
26.10.2023 06:46 9,5 C 8,9 C 6,7 C 99 % 996,9 hPa 0,0 l/m 0 min 0 min 0 W/m 6,4 km/h (2 Bft) 97,87 %
26.10.2023 06:48 9,5 C 8,9 C 6,7 C 99 % 996,9 hPa 0,0 l/m 0 min 0 min 0 W/m 6,4 km/h (2 Bft) 97,87 %
26.10.2023 06:50 9,5 C 8,9 C 6,7 C 99 % 996,9 hPa 0,0 l/m 0 min 0 min 0 W/m 6,4 km/h (2 Bft) 97,87 %
26.10.2023 06:52 9,4 C 8,9 C 6,7 C 99 % 996,9 hPa 0,0 l/m 0 min 0 min 0 W/m 3,2 km/h (1 Bft) 97,87 %
26.10.2023 06:54 9,4 C 8,9 C 6,7 C 99 % 996,9 hPa 0,0 l/m 0 min 0 min 0 W/m 3,2 km/h (1 Bft) 95,65 %
26.10.2023 06:56 9,4 C 8,9 C 6,7 C 99 % 996,9 hPa 0,0 l/m 0 min 0 min 0 W/m 9,7 km/h (2 Bft) 97,87 %
26.10.2023 06:58 9,4 C 8,9 C 6,7 C 99 % 996,9 hPa 0,0 l/m 0 min 0 min 0 W/m 6,4 km/h (2 Bft) 97,87 %
26.10.2023 07:00 9,4 C 8,9 C 6,7 C 99 % 996,9 hPa 0,0 l/m 0 min 0 min 0 W/m 3,2 km/h (1 Bft) 95,74 %
26.10.2023 07:02 9,4 C 8,9 C 6,7 C 99 % 996,9 hPa 0,0 l/m 0 min 0 min 0 W/m 3,2 km/h (1 Bft) 95,74 %
26.10.2023 07:04 9,4 C 8,9 C 6,7 C 99 % 996,8 hPa 0,0 l/m 0 min 0 min 0 W/m 3,2 km/h (1 Bft) 98,00 %
26.10.2023 07:06 9,4 C 8,9 C 6,7 C 99 % 996,8 hPa 0,0 l/m 0 min 0 min 0 W/m 3,2 km/h (1 Bft) 96,55 %
26.10.2023 07:08 9,4 C 8,9 C 6,7 C 99 % 996,9 hPa 0,0 l/m 0 min 0 min 0 W/m 6,4 km/h (2 Bft) 100,00 %
26.10.2023 07:10 9,4 C 8,9 C 6,7 C 99 % 996,8 hPa 0,0 l/m 0 min 0 min 0 W/m 3,2 km/h (1 Bft) 46,15 %
26.10.2023 07:12 9,4 C 8,9 C 6,7 C 99 % 996,8 hPa 0,0 l/m 0 min 0 min 0 W/m 6,4 km/h (2 Bft) 96,43 %
26.10.2023 07:14 9,4 C 8,9 C 6,7 C 99 % 996,9 hPa 0,0 l/m 0 min 0 min 0 W/m 3,2 km/h (1 Bft) 97,87 %
26.10.2023 07:16 9,4 C 8,9 C 6,7 C 99 % 996,9 hPa 0,0 l/m 0 min 0 min 0 W/m 3,2 km/h (1 Bft) 95,74 %
26.10.2023 07:18 9,4 C 8,9 C 6,7 C 98 % 996,8 hPa 0,0 l/m 0 min 0 min 0 W/m 6,4 km/h (2 Bft) 97,87 %
26.10.2023 07:20 9,3 C 8,9 C 6,7 C 98 % 996,7 hPa 0,0 l/m 0 min 0 min 0 W/m 6,4 km/h (2 Bft) 95,74 %
26.10.2023 07:22 9,3 C 8,9 C 6,7 C 98 % 996,7 hPa 0,0 l/m 0 min 0 min 0 W/m 6,4 km/h (2 Bft) 95,65 %
26.10.2023 07:24 9,3 C 8,9 C 6,7 C 98 % 996,7 hPa 0,0 l/m 0 min 0 min 0 W/m 3,2 km/h (1 Bft) 97,87 %
26.10.2023 07:26 9,3 C 8,9 C 6,7 C 98 % 996,7 hPa 0,0 l/m 0 min 0 min 0 W/m 3,2 km/h (1 Bft) 91,49 %
26.10.2023 07:28 9,3 C 8,3 C 6,7 C 98 % 996,7 hPa 0,0 l/m 0 min 0 min 0 W/m 3,2 km/h (1 Bft) 97,87 %
26.10.2023 07:30 9,3 C 8,3 C 6,7 C 98 % 996,7 hPa 0,0 l/m 0 min 0 min 0 W/m 6,4 km/h (2 Bft) 93,62 %
26.10.2023 07:32 9,3 C 8,3 C 6,7 C 98 % 996,8 hPa 0,0 l/m 0 min 0 min 0 W/m 3,2 km/h (1 Bft) 93,62 %
26.10.2023 07:34 9,3 C 8,3 C 6,7 C 98 % 996,8 hPa 0,0 l/m 0 min 0 min 0 W/m 3,2 km/h (1 Bft) 93,62 %
26.10.2023 07:36 9,2 C 8,3 C 6,7 C 98 % 996,7 hPa 0,0 l/m 0 min 0 min 0 W/m 3,2 km/h (1 Bft) 95,65 %
26.10.2023 07:38 9,2 C 8,3 C 6,7 C 98 % 996,8 hPa 0,0 l/m 0 min 0 min 0 W/m 3,2 km/h (1 Bft) 95,74 %
26.10.2023 07:40 9,2 C 8,3 C 6,7 C 98 % 996,8 hPa 0,0 l/m 0 min 0 min 0 W/m 3,2 km/h (1 Bft) 97,87 %
26.10.2023 07:42 9,2 C 8,3 C 6,7 C 98 % 996,7 hPa 0,0 l/m 0 min 0 min 0 W/m 3,2 km/h (1 Bft) 97,87 %
26.10.2023 07:44 9,2 C 8,3 C 6,7 C 98 % 996,7 hPa 0,0 l/m 0 min 0 min 0 W/m 6,4 km/h (2 Bft) 93,62 %
26.10.2023 07:46 9,2 C 8,3 C 6,7 C 98 % 996,7 hPa 0,0 l/m 0 min 0 min 0 W/m 3,2 km/h (1 Bft) 95,74 %
26.10.2023 07:48 9,2 C 8,3 C 6,7 C 98 % 996,7 hPa 0,0 l/m 0 min 0 min 0 W/m 3,2 km/h (1 Bft) 97,87 %
26.10.2023 07:50 9,2 C 8,3 C 6,7 C 98 % 996,7 hPa 0,0 l/m 0 min 0 min 0 W/m 0,0 km/h (0 Bft) 95,65 %
26.10.2023 07:52 9,2 C 8,3 C 6,7 C 99 % 996,6 hPa 0,0 l/m 0 min 0 min 0 W/m 3,2 km/h (1 Bft) 95,74 %
26.10.2023 07:54 9,2 C 8,3 C 6,7 C 99 % 996,6 hPa 0,0 l/m 0 min 0 min 0 W/m 3,2 km/h (1 Bft) 97,87 %
26.10.2023 07:56 9,2 C 8,3 C 6,7 C 99 % 996,6 hPa 0,0 l/m 0 min 0 min 0 W/m 6,4 km/h (2 Bft) 95,74 %
26.10.2023 07:58 9,1 C 8,3 C 6,7 C 99 % 996,7 hPa 0,0 l/m 0 min 0 min 0 W/m 6,4 km/h (2 Bft) 97,87 %
26.10.2023 08:00 9,1 C 8,3 C 6,7 C 99 % 996,7 hPa 0,0 l/m 0 min 0 min 0 W/m 3,2 km/h (1 Bft) 97,87 %
26.10.2023 08:02 9,1 C 8,3 C 6,7 C 99 % 996,7 hPa 0,0 l/m 0 min 0 min 0 W/m 0,0 km/h (0 Bft) 97,87 %
26.10.2023 08:04 9,1 C 8,3 C 6,7 C 99 % 996,8 hPa 0,0 l/m 0 min 0 min 0 W/m 3,2 km/h (1 Bft) 100,00 %
26.10.2023 08:06 9,1 C 8,3 C 6,7 C 99 % 996,7 hPa 0,0 l/m 0 min 0 min 0 W/m 3,2 km/h (1 Bft) 98,31 %
26.10.2023 08:08 9,1 C 8,3 C 6,7 C 99 % 996,8 hPa 0,0 l/m 0 min 0 min 0 W/m 3,2 km/h (1 Bft) 100,00 %
26.10.2023 08:10 9,1 C 8,3 C 6,7 C 99 % 996,8 hPa 0,0 l/m 0 min 0 min 0 W/m 6,4 km/h (2 Bft) 100,00 %
26.10.2023 08:12 9,1 C 8,3 C 6,7 C 99 % 996,8 hPa 0,0 l/m 0 min 0 min 0 W/m 3,2 km/h (1 Bft) 97,87 %
26.10.2023 08:14 9,1 C 8,3 C 6,7 C 99 % 996,7 hPa 0,0 l/m 0 min 0 min 0 W/m 3,2 km/h (1 Bft) 100,00 %
26.10.2023 08:16 9,1 C 8,3 C 6,7 C 99 % 996,8 hPa 0,0 l/m 0 min 0 min 0 W/m 3,2 km/h (1 Bft) 100,00 %
26.10.2023 08:18 9,1 C 8,3 C 6,7 C 99 % 996,7 hPa 0,0 l/m 0 min 0 min 0 W/m 3,2 km/h (1 Bft) 100,00 %
26.10.2023 08:20 9,1 C 8,3 C 6,7 C 99 % 996,7 hPa 0,0 l/m 0 min 0 min 0 W/m 3,2 km/h (1 Bft) 97,87 %
26.10.2023 08:30 9,1 C 8,3 C 6,1 C 99 % 996,7 hPa 0,0 l/m 0 min 0 min 2 W/m 0,0 km/h (0 Bft) 97,56 %
26.10.2023 08:32 9,1 C 8,3 C 6,1 C 99 % 996,6 hPa 0,0 l/m 0 min 0 min 5 W/m 3,2 km/h (1 Bft) 97,83 %
26.10.2023 08:34 9,1 C 8,3 C 6,7 C 99 % 996,6 hPa 0,0 l/m 0 min 0 min 5 W/m 3,2 km/h (1 Bft) 97,87 %
26.10.2023 08:36 9,1 C 8,3 C 6,7 C 99 % 996,7 hPa 0,0 l/m 0 min 0 min 6 W/m 6,4 km/h (2 Bft) 95,74 %
26.10.2023 08:38 9,1 C 8,3 C 6,7 C 99 % 996,7 hPa 0,0 l/m 0 min 0 min 10 W/m 3,2 km/h (1 Bft) 95,74 %
26.10.2023 08:40 9,1 C 8,3 C 6,7 C 99 % 996,6 hPa 0,0 l/m 0 min 0 min 12 W/m 0,0 km/h (0 Bft) 97,87 %
26.10.2023 08:42 9,1 C 8,3 C 6,1 C 99 % 996,7 hPa 0,0 l/m 0 min 0 min 12 W/m 0,0 km/h (0 Bft) 97,87 %
26.10.2023 08:44 9,1 C 8,3 C 6,1 C 99 % 996,7 hPa 0,0 l/m 0 min 0 min 12 W/m 0,0 km/h (0 Bft) 97,87 %
26.10.2023 08:46 9,1 C 8,3 C 6,1 C 99 % 996,7 hPa 0,0 l/m 0 min 0 min 15 W/m 0,0 km/h (0 Bft) 97,87 %
26.10.2023 08:48 9,1 C 8,3 C 6,1 C 99 % 996,8 hPa 0,0 l/m 0 min 0 min 17 W/m 3,2 km/h (1 Bft) 97,83 %
26.10.2023 08:50 9,1 C 8,3 C 6,1 C 99 % 996,7 hPa 0,0 l/m 0 min 0 min 18 W/m 3,2 km/h (1 Bft) 97,87 %
26.10.2023 08:52 9,1 C 8,3 C 6,1 C 99 % 996,7 hPa 0,0 l/m 0 min 0 min 19 W/m 6,4 km/h (2 Bft) 97,87 %
26.10.2023 08:54 9,0 C 8,3 C 6,1 C 99 % 996,8 hPa 0,0 l/m 0 min 0 min 20 W/m 3,2 km/h (1 Bft) 97,87 %
26.10.2023 08:56 9,1 C 8,3 C 6,1 C 99 % 996,8 hPa 0,0 l/m 0 min 0 min 21 W/m 3,2 km/h (1 Bft) 97,87 %
26.10.2023 08:58 9,0 C 8,3 C 6,1 C 99 % 996,8 hPa 0,0 l/m 0 min 0 min 23 W/m 3,2 km/h (1 Bft) 95,74 %
26.10.2023 09:00 9,0 C 8,3 C 6,7 C 99 % 996,7 hPa 0,0 l/m 0 min 0 min 23 W/m 0,0 km/h (0 Bft) 97,83 %
26.10.2023 09:02 9,0 C 8,3 C 6,1 C 99 % 996,7 hPa 0,0 l/m 0 min 0 min 23 W/m 0,0 km/h (0 Bft) 97,87 %
26.10.2023 09:04 9,0 C 8,3 C 6,1 C 98 % 996,7 hPa 0,0 l/m 0 min 0 min 24 W/m 0,0 km/h (0 Bft) 96,00 %
26.10.2023 09:06 9,0 C 8,3 C 6,1 C 98 % 996,7 hPa 0,0 l/m 0 min 0 min 26 W/m 0,0 km/h (0 Bft) 97,87 %
26.10.2023 09:08 9,0 C 8,3 C 6,1 C 99 % 996,7 hPa 0,0 l/m 0 min 0 min 29 W/m 0,0 km/h (0 Bft) 95,74 %
26.10.2023 09:10 9,0 C 8,3 C 6,7 C 99 % 996,8 hPa 0,0 l/m 0 min 0 min 30 W/m 3,2 km/h (1 Bft) 97,87 %
26.10.2023 09:12 9,0 C 8,9 C 6,7 C 99 % 996,8 hPa 0,0 l/m 0 min 0 min 29 W/m 3,2 km/h (1 Bft) 97,87 %
26.10.2023 09:14 9,0 C 8,9 C 6,7 C 99 % 996,7 hPa 0,0 l/m 0 min 0 min 26 W/m 0,0 km/h (0 Bft) 95,65 %
26.10.2023 09:16 9,1 C 8,9 C 6,7 C 98 % 996,7 hPa 0,0 l/m 0 min 0 min 28 W/m 0,0 km/h (0 Bft) 97,87 %
26.10.2023 09:18 9,1 C 8,9 C 6,7 C 98 % 996,7 hPa 0,0 l/m 0 min 0 min 32 W/m 3,2 km/h (1 Bft) 97,87 %
26.10.2023 09:20 9,1 C 8,9 C 6,7 C 98 % 996,7 hPa 0,0 l/m 0 min 0 min 35 W/m 3,2 km/h (1 Bft) 97,87 %
26.10.2023 09:22 9,0 C 8,9 C 6,7 C 98 % 996,6 hPa 0,0 l/m 0 min 0 min 38 W/m 3,2 km/h (1 Bft) 95,74 %
26.10.2023 09:24 9,1 C 8,9 C 6,7 C 98 % 996,6 hPa 0,0 l/m 0 min 0 min 42 W/m 0,0 km/h (0 Bft) 97,87 %
26.10.2023 09:26 9,1 C 8,9 C 6,7 C 98 % 996,6 hPa 0,0 l/m 0 min 0 min 44 W/m 0,0 km/h (0 Bft) 95,74 %
26.10.2023 09:28 9,1 C 8,9 C 6,7 C 98 % 996,6 hPa 0,0 l/m 0 min 0 min 46 W/m 3,2 km/h (1 Bft) 97,83 %
26.10.2023 09:30 9,1 C 8,9 C 6,7 C 98 % 996,6 hPa 0,0 l/m 0 min 0 min 46 W/m 3,2 km/h (1 Bft) 97,87 %
26.10.2023 09:32 9,1 C 8,9 C 6,7 C 98 % 996,6 hPa 0,0 l/m 0 min 0 min 47 W/m 3,2 km/h (1 Bft) 95,74 %
26.10.2023 09:34 9,1 C 8,9 C 6,7 C 98 % 996,5 hPa 0,0 l/m 0 min 0 min 49 W/m 0,0 km/h (0 Bft) 97,87 %
26.10.2023 09:36 9,1 C 8,9 C 6,7 C 98 % 996,5 hPa 0,0 l/m 0 min 0 min 52 W/m 0,0 km/h (0 Bft) 97,87 %
26.10.2023 09:38 9,1 C 8,9 C 6,7 C 98 % 996,4 hPa 0,0 l/m 0 min 0 min 54 W/m 0,0 km/h (0 Bft) 97,87 %
26.10.2023 09:40 9,1 C 8,9 C 6,7 C 98 % 996,4 hPa 0,0 l/m 0 min 0 min 54 W/m 0,0 km/h (0 Bft) 97,87 %
26.10.2023 09:42 9,1 C 8,9 C 6,7 C 99 % 996,4 hPa 0,0 l/m 0 min 0 min 56 W/m 0,0 km/h (0 Bft) 97,83 %
26.10.2023 09:44 9,1 C 8,9 C 6,7 C 99 % 996,4 hPa 0,0 l/m 0 min 0 min 56 W/m 0,0 km/h (0 Bft) 97,87 %
26.10.2023 09:46 9,1 C 8,9 C 6,7 C 99 % 996,5 hPa 0,0 l/m 0 min 0 min 56 W/m 3,2 km/h (1 Bft) 97,87 %
26.10.2023 09:48 9,1 C 8,9 C 6,7 C 99 % 996,4 hPa 0,0 l/m 0 min 0 min 60 W/m 3,2 km/h (1 Bft) 97,87 %
26.10.2023 09:50 9,1 C 9,4 C 6,7 C 99 % 996,4 hPa 0,0 l/m 0 min 0 min 61 W/m 3,2 km/h (1 Bft) 100,00 %
26.10.2023 09:52 9,1 C 9,4 C 6,7 C 99 % 996,4 hPa 0,0 l/m 0 min 0 min 54 W/m 3,2 km/h (1 Bft) 97,87 %
26.10.2023 09:54 9,1 C 9,4 C 6,7 C 99 % 996,4 hPa 0,0 l/m 0 min 0 min 53 W/m 6,4 km/h (2 Bft) 97,87 %
26.10.2023 09:56 9,1 C 8,9 C 6,7 C 99 % 996,5 hPa 0,0 l/m 0 min 0 min 53 W/m 6,4 km/h (2 Bft) 97,83 %
26.10.2023 09:58 9,1 C 8,9 C 6,7 C 99 % 996,5 hPa 0,0 l/m 0 min 0 min 56 W/m 6,4 km/h (2 Bft) 97,87 %
26.10.2023 10:00 9,1 C 8,9 C 6,7 C 99 % 996,5 hPa 0,0 l/m 0 min 0 min 58 W/m 3,2 km/h (1 Bft) 95,74 %
26.10.2023 10:02 9,1 C 8,9 C 6,7 C 99 % 996,5 hPa 0,0 l/m 0 min 0 min 58 W/m 3,2 km/h (1 Bft) 100,00 %
26.10.2023 10:04 9,1 C 8,9 C 6,7 C 99 % 996,5 hPa 0,0 l/m 0 min 0 min 59 W/m 3,2 km/h (1 Bft) 98,00 %
26.10.2023 10:06 9,1 C 8,9 C 6,7 C 99 % 996,6 hPa 0,0 l/m 0 min 0 min 61 W/m 6,4 km/h (2 Bft) 98,11 %
26.10.2023 10:08 9,1 C 8,9 C 6,7 C 99 % 996,7 hPa 0,0 l/m 0 min 0 min 66 W/m 6,4 km/h (2 Bft) 97,14 %
26.10.2023 10:10 9,1 C 8,9 C 6,7 C 99 % 996,7 hPa 0,0 l/m 0 min 0 min 77 W/m 6,4 km/h (2 Bft) 97,87 %
26.10.2023 10:12 9,1 C 8,9 C 6,7 C 99 % 996,7 hPa 0,0 l/m 0 min 0 min 79 W/m 3,2 km/h (1 Bft) 97,87 %
26.10.2023 10:14 9,1 C 8,9 C 6,7 C 99 % 996,7 hPa 0,0 l/m 0 min 0 min 60 W/m 3,2 km/h (1 Bft) 97,87 %
26.10.2023 10:16 9,1 C 8,9 C 6,7 C 99 % 996,6 hPa 0,0 l/m 0 min 0 min 52 W/m 3,2 km/h (1 Bft) 97,83 %
26.10.2023 10:18 9,1 C 8,9 C 6,7 C 99 % 996,8 hPa 0,0 l/m 0 min 0 min 62 W/m 3,2 km/h (1 Bft) 97,87 %
26.10.2023 10:20 9,1 C 8,9 C 6,7 C 99 % 996,8 hPa 0,0 l/m 0 min 0 min 71 W/m 3,2 km/h (1 Bft) 93,62 %
26.10.2023 10:22 9,1 C 8,9 C 6,7 C 99 % 996,8 hPa 0,0 l/m 0 min 0 min 74 W/m 3,2 km/h (1 Bft) 97,87 %
26.10.2023 10:24 9,1 C 8,9 C 6,7 C 99 % 996,8 hPa 0,0 l/m 0 min 0 min 67 W/m 6,4 km/h (2 Bft) 97,87 %
26.10.2023 10:26 9,1 C 8,9 C 6,7 C 99 % 996,8 hPa 0,0 l/m 0 min 0 min 57 W/m 3,2 km/h (1 Bft) 95,74 %
26.10.2023 10:28 9,1 C 8,9 C 6,7 C 99 % 996,8 hPa 0,0 l/m 0 min 0 min 52 W/m 0,0 km/h (0 Bft) 97,83 %
26.10.2023 10:30 9,2 C 8,9 C 6,7 C 99 % 996,7 hPa 0,0 l/m 0 min 0 min 53 W/m 0,0 km/h (0 Bft) 93,62 %
26.10.2023 10:32 9,2 C 9,4 C 6,7 C 99 % 996,8 hPa 0,0 l/m 0 min 0 min 57 W/m 0,0 km/h (0 Bft) 97,87 %
26.10.2023 10:34 9,2 C 9,4 C 6,7 C 98 % 996,7 hPa 0,0 l/m 0 min 0 min 57 W/m 0,0 km/h (0 Bft) 97,87 %
26.10.2023 10:36 9,2 C 9,4 C 6,7 C 98 % 996,7 hPa 0,0 l/m 0 min 0 min 60 W/m 0,0 km/h (0 Bft) 95,74 %
26.10.2023 10:38 9,2 C 9,4 C 6,7 C 98 % 996,9 hPa 0,0 l/m 0 min 0 min 69 W/m 0,0 km/h (0 Bft) 93,62 %
26.10.2023 10:40 9,3 C 9,4 C 6,7 C 98 % 996,9 hPa 0,0 l/m 0 min 0 min 107 W/m 0,0 km/h (0 Bft) 95,74 %
26.10.2023 10:42 9,3 C 9,4 C 6,7 C 98 % 996,8 hPa 0,0 l/m 0 min 0 min 140 W/m 0,0 km/h (0 Bft) 97,83 %
26.10.2023 10:44 9,3 C 10,0 C 6,7 C 98 % 996,9 hPa 0,0 l/m 0 min 0 min 121 W/m 0,0 km/h (0 Bft) 95,74 %
26.10.2023 10:46 9,4 C 10,0 C 7,2 C 99 % 996,9 hPa 0,0 l/m 0 min 0 min 105 W/m 0,0 km/h (0 Bft) 100,00 %
26.10.2023 10:48 9,4 C 10,0 C 7,2 C 99 % 997,0 hPa 0,0 l/m 0 min 0 min 111 W/m 0,0 km/h (0 Bft) 100,00 %
26.10.2023 10:50 9,5 C 10,0 C 7,2 C 99 % 997,0 hPa 0,0 l/m 0 min 0 min 114 W/m 0,0 km/h (0 Bft) 100,00 %
26.10.2023 10:52 9,6 C 10,0 C 7,2 C 99 % 997,0 hPa 0,0 l/m 0 min 0 min 115 W/m 0,0 km/h (0 Bft) 97,87 %
26.10.2023 10:54 9,6 C 10,0 C 7,2 C 98 % 997,0 hPa 0,0 l/m 0 min 0 min 114 W/m 0,0 km/h (0 Bft) 100,00 %
26.10.2023 10:56 9,6 C 10,0 C 7,2 C 98 % 997,0 hPa 0,0 l/m 0 min 0 min 115 W/m 6,4 km/h (2 Bft) 97,87 %
26.10.2023 10:58 9,6 C 10,0 C 7,2 C 98 % 997,1 hPa 0,0 l/m 0 min 0 min 123 W/m 0,0 km/h (0 Bft) 95,65 %
26.10.2023 11:00 9,7 C 10,0 C 7,2 C 98 % 997,1 hPa 0,0 l/m 0 min 0 min 132 W/m 0,0 km/h (0 Bft) 95,74 %
26.10.2023 11:02 9,7 C 10,0 C 7,2 C 98 % 997,1 hPa 0,0 l/m 0 min 0 min 126 W/m 6,4 km/h (2 Bft) 100,00 %
26.10.2023 11:04 9,8 C 10,0 C 7,2 C 99 % 997,1 hPa 0,0 l/m 0 min 0 min 120 W/m 3,2 km/h (1 Bft) 100,00 %
26.10.2023 11:06 9,8 C 10,6 C 7,8 C 99 % 997,1 hPa 0,0 l/m 0 min 0 min 138 W/m 6,4 km/h (2 Bft) 98,28 %
26.10.2023 11:08 9,8 C 10,6 C 7,8 C 99 % 997,0 hPa 0,0 l/m 0 min 0 min 143 W/m 3,2 km/h (1 Bft) 97,14 %
26.10.2023 11:10 9,9 C 10,6 C 7,8 C 99 % 997,0 hPa 0,0 l/m 0 min 0 min 131 W/m 6,4 km/h (2 Bft) 100,00 %
26.10.2023 11:12 9,9 C 11,1 C 7,8 C 99 % 996,9 hPa 0,0 l/m 0 min 0 min 167 W/m 6,4 km/h (2 Bft) 97,87 %
26.10.2023 11:14 9,9 C 11,7 C 7,8 C 98 % 997,0 hPa 0,0 l/m 2 min 0 min 235 W/m 6,4 km/h (2 Bft) 93,62 %
26.10.2023 11:16 10,0 C 12,2 C 7,8 C 98 % 996,9 hPa 0,0 l/m 2 min 0 min 248 W/m 3,2 km/h (1 Bft) 93,62 %
26.10.2023 11:18 10,1 C 11,7 C 7,8 C 98 % 996,9 hPa 0,0 l/m 0 min 0 min 170 W/m 3,2 km/h (1 Bft) 93,62 %
26.10.2023 11:20 10,1 C 11,7 C 7,8 C 98 % 996,8 hPa 0,0 l/m 0 min 0 min 128 W/m 0,0 km/h (0 Bft) 97,87 %
26.10.2023 11:22 10,1 C 11,7 C 7,8 C 98 % 996,8 hPa 0,0 l/m 0 min 0 min 138 W/m 3,2 km/h (1 Bft) 95,65 %
26.10.2023 11:24 10,1 C 11,7 C 7,8 C 99 % 996,9 hPa 0,0 l/m 0 min 0 min 181 W/m 6,4 km/h (2 Bft) 95,74 %
26.10.2023 11:26 10,1 C 11,7 C 7,8 C 99 % 996,8 hPa 0,0 l/m 0 min 0 min 153 W/m 9,7 km/h (2 Bft) 93,62 %
26.10.2023 11:28 10,1 C 11,7 C 7,8 C 98 % 996,9 hPa 0,0 l/m 2 min 0 min 200 W/m 3,2 km/h (1 Bft) 95,74 %
26.10.2023 11:30 10,1 C 12,2 C 7,8 C 98 % 996,9 hPa 0,0 l/m 2 min 0 min 209 W/m 9,7 km/h (2 Bft) 93,62 %
26.10.2023 11:32 10,2 C 11,7 C 7,8 C 98 % 996,9 hPa 0,0 l/m 0 min 0 min 140 W/m 9,7 km/h (2 Bft) 93,62 %
26.10.2023 11:34 10,2 C 11,7 C 7,8 C 98 % 997,0 hPa 0,0 l/m 0 min 0 min 132 W/m 9,7 km/h (2 Bft) 93,62 %
26.10.2023 11:36 10,2 C 11,7 C 7,8 C 98 % 997,0 hPa 0,0 l/m 0 min 0 min 130 W/m 3,2 km/h (1 Bft) 95,65 %
26.10.2023 11:38 10,2 C 11,1 C 7,8 C 98 % 996,9 hPa 0,0 l/m 0 min 0 min 117 W/m 0,0 km/h (0 Bft) 93,62 %
26.10.2023 11:40 10,2 C 11,1 C 7,8 C 98 % 997,0 hPa 0,0 l/m 0 min 0 min 115 W/m 6,4 km/h (2 Bft) 93,62 %
26.10.2023 11:42 10,2 C 11,1 C 7,8 C 98 % 997,0 hPa 0,0 l/m 0 min 0 min 120 W/m 3,2 km/h (1 Bft) 95,74 %
26.10.2023 11:44 10,2 C 10,6 C 7,8 C 98 % 996,9 hPa 0,0 l/m 0 min 0 min 136 W/m 3,2 km/h (1 Bft) 97,87 %
26.10.2023 11:46 10,2 C 11,1 C 7,8 C 98 % 996,9 hPa 0,0 l/m 0 min 0 min 156 W/m 3,2 km/h (1 Bft) 97,87 %
26.10.2023 11:48 10,3 C 11,1 C 8,3 C 98 % 996,8 hPa 0,0 l/m 0 min 0 min 183 W/m 0,0 km/h (0 Bft) 95,74 %
26.10.2023 11:50 10,3 C 11,7 C 8,3 C 98 % 996,9 hPa 0,0 l/m 2 min 0 min 210 W/m 0,0 km/h (0 Bft) 97,83 %
26.10.2023 11:52 10,3 C 11,7 C 8,3 C 98 % 996,9 hPa 0,0 l/m 0 min 0 min 194 W/m 3,2 km/h (1 Bft) 95,74 %
26.10.2023 11:54 10,3 C 11,7 C 8,3 C 98 % 996,9 hPa 0,0 l/m 0 min 0 min 170 W/m 6,4 km/h (2 Bft) 97,87 %
26.10.2023 11:56 10,4 C 11,7 C 8,3 C 98 % 996,9 hPa 0,0 l/m 0 min 0 min 157 W/m 6,4 km/h (2 Bft) 95,74 %
26.10.2023 11:58 10,4 C 11,7 C 8,3 C 98 % 996,9 hPa 0,0 l/m 0 min 0 min 130 W/m 3,2 km/h (1 Bft) 97,87 %
26.10.2023 12:00 10,4 C 11,7 C 8,3 C 98 % 996,9 hPa 0,0 l/m 0 min 0 min 123 W/m 3,2 km/h (1 Bft) 97,87 %
26.10.2023 12:02 10,5 C 11,7 C 8,3 C 98 % 996,9 hPa 0,0 l/m 0 min 0 min 129 W/m 3,2 km/h (1 Bft) 97,87 %
26.10.2023 12:04 10,5 C 11,7 C 8,3 C 98 % 996,9 hPa 0,0 l/m 0 min 0 min 115 W/m 6,4 km/h (2 Bft) 95,92 %
26.10.2023 12:08 10,6 C 11,7 C 8,3 C 98 % 997,0 hPa 0,0 l/m 0 min 0 min 80 W/m 6,4 km/h (2 Bft) 97,85 %
26.10.2023 12:10 10,6 C 11,1 C 8,3 C 98 % 997,0 hPa 0,0 l/m 0 min 0 min 73 W/m 3,2 km/h (1 Bft) 100,00 %
26.10.2023 12:12 10,6 C 11,1 C 8,3 C 98 % 996,9 hPa 0,0 l/m 0 min 0 min 72 W/m 0,0 km/h (0 Bft) 100,00 %
26.10.2023 12:14 10,6 C 11,1 C 8,3 C 97 % 997,0 hPa 0,0 l/m 0 min 0 min 77 W/m 0,0 km/h (0 Bft) 97,87 %
26.10.2023 12:16 10,6 C 11,1 C 8,3 C 98 % 996,9 hPa 0,0 l/m 0 min 0 min 111 W/m 0,0 km/h (0 Bft) 97,87 %
26.10.2023 12:18 10,6 C 11,7 C 8,3 C 98 % 996,9 hPa 0,0 l/m 0 min 0 min 175 W/m 0,0 km/h (0 Bft) 97,83 %
26.10.2023 12:20 10,7 C 12,2 C 8,9 C 98 % 996,9 hPa 0,0 l/m 2 min 0 min 225 W/m 3,2 km/h (1 Bft) 97,87 %
26.10.2023 12:22 10,8 C 12,2 C 8,9 C 97 % 996,9 hPa 0,0 l/m 2 min 0 min 239 W/m 3,2 km/h (1 Bft) 91,49 %
26.10.2023 12:24 10,9 C 12,8 C 8,9 C 97 % 996,9 hPa 0,0 l/m 2 min 0 min 246 W/m 3,2 km/h (1 Bft) 93,62 %
26.10.2023 12:26 11,0 C 12,8 C 9,4 C 98 % 996,7 hPa 0,0 l/m 2 min 0 min 213 W/m 6,4 km/h (2 Bft) 63,83 %
26.10.2023 12:28 11,1 C 12,8 C 9,4 C 98 % 996,7 hPa 0,0 l/m 0 min 0 min 152 W/m 3,2 km/h (1 Bft) 91,49 %
26.10.2023 12:30 11,2 C 12,8 C 9,4 C 98 % 996,7 hPa 0,0 l/m 0 min 0 min 122 W/m 6,4 km/h (2 Bft) 97,87 %
26.10.2023 12:32 11,1 C 12,2 C 8,9 C 97 % 996,6 hPa 0,0 l/m 0 min 0 min 103 W/m 6,4 km/h (2 Bft) 100,00 %
26.10.2023 12:34 11,2 C 12,2 C 8,9 C 97 % 996,6 hPa 0,0 l/m 0 min 0 min 93 W/m 3,2 km/h (1 Bft) 100,00 %
26.10.2023 12:36 11,1 C 12,2 C 8,9 C 97 % 996,6 hPa 0,0 l/m 0 min 0 min 96 W/m 6,4 km/h (2 Bft) 100,00 %
26.10.2023 12:38 11,1 C 12,2 C 8,9 C 97 % 996,7 hPa 0,0 l/m 0 min 0 min 109 W/m 3,2 km/h (1 Bft) 95,74 %
26.10.2023 12:40 11,1 C 12,2 C 8,9 C 97 % 996,7 hPa 0,0 l/m 0 min 0 min 120 W/m 0,0 km/h (0 Bft) 95,74 %
26.10.2023 12:42 11,1 C 12,2 C 8,9 C 97 % 996,6 hPa 0,0 l/m 0 min 0 min 123 W/m 0,0 km/h (0 Bft) 96,36 %
26.10.2023 12:44 11,2 C 12,2 C 8,9 C 96 % 996,6 hPa 0,0 l/m 0 min 0 min 113 W/m 0,0 km/h (0 Bft) 97,37 %
26.10.2023 12:46 11,2 C 12,2 C 8,9 C 96 % 996,6 hPa 0,0 l/m 0 min 0 min 118 W/m 0,0 km/h (0 Bft) 97,87 %
26.10.2023 12:48 11,2 C 12,2 C 8,9 C 96 % 996,6 hPa 0,0 l/m 0 min 0 min 127 W/m 0,0 km/h (0 Bft) 97,87 %
26.10.2023 12:50 11,2 C 12,2 C 8,9 C 96 % 996,7 hPa 0,0 l/m 0 min 0 min 128 W/m 0,0 km/h (0 Bft) 95,74 %
26.10.2023 12:52 11,2 C 12,2 C 8,9 C 96 % 996,6 hPa 0,0 l/m 0 min 0 min 140 W/m 0,0 km/h (0 Bft) 97,87 %
26.10.2023 12:54 11,2 C 12,2 C 8,9 C 95 % 996,6 hPa 0,0 l/m 0 min 0 min 148 W/m 0,0 km/h (0 Bft) 100,00 %
26.10.2023 12:56 11,2 C 12,2 C 8,9 C 95 % 996,5 hPa 0,0 l/m 0 min 0 min 153 W/m 0,0 km/h (0 Bft) 95,74 %
26.10.2023 12:58 11,2 C 12,2 C 8,9 C 95 % 996,5 hPa 0,0 l/m 0 min 0 min 154 W/m 0,0 km/h (0 Bft) 97,87 %
26.10.2023 13:00 11,2 C 12,2 C 8,9 C 95 % 996,5 hPa 0,0 l/m 0 min 0 min 157 W/m 0,0 km/h (0 Bft) 95,65 %
26.10.2023 13:02 11,2 C 12,2 C 8,9 C 94 % 996,5 hPa 0,0 l/m 0 min 0 min 163 W/m 0,0 km/h (0 Bft) 95,74 %
26.10.2023 13:04 11,3 C 12,2 C 8,9 C 94 % 996,5 hPa 0,0 l/m 0 min 0 min 167 W/m 0,0 km/h (0 Bft) 97,96 %
26.10.2023 13:06 11,3 C 12,2 C 8,9 C 94 % 996,4 hPa 0,0 l/m 0 min 0 min 164 W/m 0,0 km/h (0 Bft) 95,74 %
26.10.2023 13:08 11,3 C 12,2 C 8,9 C 94 % 996,3 hPa 0,0 l/m 0 min 0 min 161 W/m 0,0 km/h (0 Bft) 95,74 %
26.10.2023 13:10 11,3 C 12,2 C 8,9 C 94 % 996,3 hPa 0,0 l/m 0 min 0 min 155 W/m 0,0 km/h (0 Bft) 95,74 %
26.10.2023 13:12 11,4 C 12,2 C 8,9 C 93 % 996,3 hPa 0,0 l/m 0 min 0 min 150 W/m 0,0 km/h (0 Bft) 95,74 %
26.10.2023 13:14 11,4 C 12,2 C 8,9 C 93 % 996,3 hPa 0,0 l/m 0 min 0 min 145 W/m 0,0 km/h (0 Bft) 93,62 %
26.10.2023 13:16 11,4 C 12,2 C 8,9 C 93 % 996,3 hPa 0,0 l/m 0 min 0 min 141 W/m 0,0 km/h (0 Bft) 95,65 %
26.10.2023 13:18 11,4 C 12,2 C 8,9 C 92 % 996,2 hPa 0,0 l/m 0 min 0 min 141 W/m 0,0 km/h (0 Bft) 93,62 %
26.10.2023 13:20 11,4 C 12,2 C 8,9 C 92 % 996,3 hPa 0,0 l/m 0 min 0 min 144 W/m 0,0 km/h (0 Bft) 93,62 %
26.10.2023 13:22 11,4 C 12,2 C 8,9 C 92 % 996,3 hPa 0,0 l/m 0 min 0 min 149 W/m 0,0 km/h (0 Bft) 91,49 %
26.10.2023 13:24 11,5 C 12,2 C 8,9 C 92 % 996,3 hPa 0,0 l/m 0 min 0 min 157 W/m 0,0 km/h (0 Bft) 97,87 %
26.10.2023 13:26 11,5 C 12,2 C 8,9 C 92 % 996,2 hPa 0,0 l/m 0 min 0 min 171 W/m 0,0 km/h (0 Bft) 97,87 %
26.10.2023 13:28 11,6 C 12,2 C 8,9 C 91 % 996,2 hPa 0,0 l/m 0 min 0 min 186 W/m 0,0 km/h (0 Bft) 97,87 %
26.10.2023 13:30 11,6 C 12,8 C 8,9 C 91 % 996,2 hPa 0,0 l/m 0 min 0 min 199 W/m 0,0 km/h (0 Bft) 97,83 %
26.10.2023 13:32 11,7 C 12,8 C 9,4 C 91 % 996,1 hPa 0,0 l/m 0 min 0 min 198 W/m 0,0 km/h (0 Bft) 95,74 %
26.10.2023 13:34 11,7 C 12,8 C 9,4 C 91 % 996,1 hPa 0,0 l/m 0 min 0 min 186 W/m 0,0 km/h (0 Bft) 95,74 %
26.10.2023 13:36 11,8 C 12,8 C 9,4 C 91 % 996,1 hPa 0,0 l/m 0 min 0 min 172 W/m 0,0 km/h (0 Bft) 95,74 %
26.10.2023 13:38 11,8 C 12,8 C 9,4 C 90 % 996,0 hPa 0,0 l/m 0 min 0 min 158 W/m 0,0 km/h (0 Bft) 93,62 %
26.10.2023 13:40 11,8 C 12,8 C 9,4 C 90 % 995,9 hPa 0,0 l/m 0 min 0 min 150 W/m 0,0 km/h (0 Bft) 95,74 %
26.10.2023 13:42 11,9 C 12,8 C 9,4 C 90 % 995,9 hPa 0,0 l/m 0 min 0 min 148 W/m 0,0 km/h (0 Bft) 95,65 %
26.10.2023 13:44 11,9 C 12,8 C 9,4 C 90 % 996,0 hPa 0,0 l/m 0 min 0 min 148 W/m 0,0 km/h (0 Bft) 89,36 %
26.10.2023 13:46 11,9 C 12,2 C 9,4 C 90 % 996,0 hPa 0,0 l/m 0 min 0 min 144 W/m 0,0 km/h (0 Bft) 82,98 %
26.10.2023 13:48 11,9 C 12,2 C 8,9 C 90 % 996,0 hPa 0,0 l/m 0 min 0 min 146 W/m 0,0 km/h (0 Bft) 76,60 %
26.10.2023 13:50 11,9 C 12,2 C 8,9 C 89 % 996,0 hPa 0,0 l/m 0 min 0 min 149 W/m 0,0 km/h (0 Bft) 95,74 %
26.10.2023 13:52 11,9 C 12,2 C 8,9 C 89 % 995,9 hPa 0,0 l/m 0 min 0 min 154 W/m 0,0 km/h (0 Bft) 100,00 %
26.10.2023 13:54 11,9 C 12,2 C 8,9 C 89 % 995,9 hPa 0,0 l/m 0 min 0 min 155 W/m 0,0 km/h (0 Bft) 100,00 %
26.10.2023 13:56 11,9 C 12,2 C 8,9 C 89 % 996,0 hPa 0,0 l/m 0 min 0 min 153 W/m 0,0 km/h (0 Bft) 97,83 %
26.10.2023 13:58 11,9 C 12,2 C 8,9 C 88 % 996,0 hPa 0,0 l/m 0 min 0 min 150 W/m 0,0 km/h (0 Bft) 97,87 %
26.10.2023 14:00 11,9 C 12,2 C 8,9 C 88 % 995,9 hPa 0,0 l/m 0 min 0 min 149 W/m 0,0 km/h (0 Bft) 100,00 %
26.10.2023 14:02 11,9 C 12,2 C 8,9 C 88 % 996,0 hPa 0,0 l/m 0 min 0 min 152 W/m 0,0 km/h (0 Bft) 95,74 %
26.10.2023 14:04 11,9 C 12,2 C 8,9 C 88 % 996,0 hPa 0,0 l/m 0 min 0 min 165 W/m 0,0 km/h (0 Bft) 100,00 %
26.10.2023 14:06 11,9 C 12,2 C 8,9 C 88 % 996,0 hPa 0,0 l/m 0 min 0 min 171 W/m 0,0 km/h (0 Bft) 97,87 %
26.10.2023 14:08 11,9 C 12,2 C 8,9 C 88 % 996,0 hPa 0,0 l/m 0 min 0 min 178 W/m 0,0 km/h (0 Bft) 100,00 %
26.10.2023 14:10 12,0 C 12,2 C 9,4 C 88 % 996,0 hPa 0,0 l/m 0 min 0 min 185 W/m 0,0 km/h (0 Bft) 97,83 %
26.10.2023 14:12 12,0 C 12,2 C 9,4 C 88 % 995,9 hPa 0,0 l/m 0 min 0 min 194 W/m 0,0 km/h (0 Bft) 100,00 %
26.10.2023 14:14 12,1 C 12,8 C 9,4 C 88 % 995,8 hPa 0,0 l/m 0 min 0 min 203 W/m 0,0 km/h (0 Bft) 97,87 %
26.10.2023 14:16 12,1 C 12,8 C 9,4 C 88 % 996,0 hPa 0,0 l/m 0 min 0 min 206 W/m 0,0 km/h (0 Bft) 97,87 %
26.10.2023 14:18 12,1 C 12,2 C 9,4 C 87 % 996,0 hPa 0,0 l/m 0 min 0 min 197 W/m 0,0 km/h (0 Bft) 95,74 %
26.10.2023 14:20 12,1 C 12,8 C 9,4 C 87 % 996,0 hPa 0,0 l/m 0 min 0 min 182 W/m 0,0 km/h (0 Bft) 97,87 %
26.10.2023 14:22 12,1 C 12,8 C 9,4 C 87 % 996,1 hPa 0,0 l/m 0 min 0 min 178 W/m 0,0 km/h (0 Bft) 93,62 %
26.10.2023 14:24 12,1 C 12,8 C 9,4 C 87 % 996,0 hPa 0,0 l/m 0 min 0 min 171 W/m 0,0 km/h (0 Bft) 95,65 %
26.10.2023 14:26 12,2 C 12,8 C 9,4 C 87 % 996,0 hPa 0,0 l/m 0 min 0 min 166 W/m 0,0 km/h (0 Bft) 95,74 %
26.10.2023 14:28 12,2 C 12,8 C 9,4 C 88 % 995,9 hPa 0,0 l/m 0 min 0 min 167 W/m 0,0 km/h (0 Bft) 97,87 %
26.10.2023 14:30 12,3 C 12,8 C 9,4 C 88 % 996,0 hPa 0,0 l/m 0 min 0 min 166 W/m 0,0 km/h (0 Bft) 97,87 %
26.10.2023 14:32 12,3 C 12,8 C 9,4 C 88 % 996,0 hPa 0,0 l/m 0 min 0 min 167 W/m 0,0 km/h (0 Bft) 97,87 %
26.10.2023 14:34 12,3 C 12,8 C 9,4 C 88 % 996,0 hPa 0,0 l/m 0 min 0 min 179 W/m 0,0 km/h (0 Bft) 95,74 %
26.10.2023 14:36 12,4 C 12,8 C 9,4 C 88 % 996,0 hPa 0,0 l/m 0 min 0 min 181 W/m 0,0 km/h (0 Bft) 97,44 %
26.10.2023 14:38 12,4 C 12,8 C 9,4 C 88 % 996,0 hPa 0,0 l/m 0 min 0 min 181 W/m 0,0 km/h (0 Bft) 95,74 %
26.10.2023 14:40 12,4 C 12,8 C 9,4 C 88 % 996,1 hPa 0,0 l/m 0 min 0 min 172 W/m 0,0 km/h (0 Bft) 97,83 %
26.10.2023 14:42 12,4 C 12,8 C 9,4 C 88 % 996,0 hPa 0,0 l/m 0 min 0 min 154 W/m 0,0 km/h (0 Bft) 95,74 %
26.10.2023 14:44 12,4 C 12,8 C 9,4 C 88 % 996,0 hPa 0,0 l/m 0 min 0 min 137 W/m 0,0 km/h (0 Bft) 91,49 %
26.10.2023 14:46 12,4 C 12,2 C 9,4 C 88 % 996,0 hPa 0,0 l/m 0 min 0 min 128 W/m 0,0 km/h (0 Bft) 93,62 %
26.10.2023 14:48 12,4 C 12,2 C 9,4 C 87 % 996,0 hPa 0,0 l/m 0 min 0 min 124 W/m 0,0 km/h (0 Bft) 97,87 %
26.10.2023 14:50 12,4 C 12,2 C 9,4 C 87 % 995,9 hPa 0,0 l/m 0 min 0 min 120 W/m 0,0 km/h (0 Bft) 95,74 %
26.10.2023 14:52 12,4 C 12,2 C 9,4 C 87 % 995,9 hPa 0,0 l/m 0 min 0 min 119 W/m 0,0 km/h (0 Bft) 97,87 %
26.10.2023 14:54 12,4 C 12,2 C 9,4 C 87 % 995,9 hPa 0,0 l/m 0 min 0 min 116 W/m 0,0 km/h (0 Bft) 95,65 %
26.10.2023 14:56 12,4 C 12,2 C 9,4 C 87 % 995,8 hPa 0,0 l/m 0 min 0 min 122 W/m 0,0 km/h (0 Bft) 97,87 %
26.10.2023 14:58 12,4 C 12,2 C 9,4 C 87 % 995,8 hPa 0,0 l/m 0 min 0 min 138 W/m 0,0 km/h (0 Bft) 95,74 %
26.10.2023 15:00 12,4 C 12,8 C 8,9 C 88 % 995,9 hPa 0,0 l/m 0 min 2 min 152 W/m 0,0 km/h (0 Bft) 97,87 %
26.10.2023 15:02 12,5 C 12,8 C 8,9 C 88 % 995,9 hPa 0,0 l/m 0 min 2 min 168 W/m 0,0 km/h (0 Bft) 97,87 %
26.10.2023 15:04 12,5 C 12,8 C 8,9 C 88 % 995,8 hPa 0,0 l/m 0 min 0 min 178 W/m 0,0 km/h (0 Bft) 98,00 %
26.10.2023 15:06 12,6 C 12,8 C 8,9 C 88 % 995,7 hPa 0,0 l/m 0 min 0 min 172 W/m 6,4 km/h (2 Bft) 93,62 %
26.10.2023 15:08 12,6 C 12,8 C 8,9 C 88 % 995,7 hPa 0,0 l/m 0 min 0 min 164 W/m 3,2 km/h (1 Bft) 97,87 %
26.10.2023 15:10 12,6 C 12,8 C 8,9 C 88 % 995,6 hPa 0,0 l/m 0 min 0 min 164 W/m 6,4 km/h (2 Bft) 95,65 %
26.10.2023 15:12 12,6 C 13,3 C 8,9 C 88 % 995,6 hPa 0,0 l/m 0 min 0 min 166 W/m 3,2 km/h (1 Bft) 93,62 %
26.10.2023 15:14 12,7 C 13,3 C 9,4 C 88 % 995,6 hPa 0,0 l/m 0 min 0 min 169 W/m 6,4 km/h (2 Bft) 93,62 %
26.10.2023 15:16 12,7 C 13,3 C 9,4 C 88 % 995,5 hPa 0,0 l/m 0 min 0 min 158 W/m 3,2 km/h (1 Bft) 97,87 %
26.10.2023 15:18 12,7 C 13,3 C 9,4 C 88 % 995,4 hPa 0,0 l/m 0 min 0 min 144 W/m 0,0 km/h (0 Bft) 72,34 %
26.10.2023 15:20 12,7 C 13,3 C 9,4 C 88 % 995,5 hPa 0,0 l/m 0 min 0 min 144 W/m 6,4 km/h (2 Bft) 77,14 %
26.10.2023 15:22 12,7 C 13,3 C 9,4 C 87 % 995,4 hPa 0,0 l/m 0 min 0 min 141 W/m 3,2 km/h (1 Bft) 95,74 %
26.10.2023 15:24 12,7 C 12,8 C 9,4 C 87 % 995,3 hPa 0,0 l/m 0 min 0 min 127 W/m 6,4 km/h (2 Bft) 95,65 %
26.10.2023 15:26 12,7 C 12,8 C 9,4 C 87 % 995,3 hPa 0,0 l/m 0 min 0 min 124 W/m 3,2 km/h (1 Bft) 95,74 %
26.10.2023 15:28 12,7 C 13,3 C 9,4 C 87 % 995,2 hPa 0,0 l/m 0 min 0 min 136 W/m 6,4 km/h (2 Bft) 93,62 %
26.10.2023 15:30 12,8 C 13,3 C 9,4 C 87 % 995,3 hPa 0,0 l/m 0 min 0 min 156 W/m 6,4 km/h (2 Bft) 95,74 %
26.10.2023 15:32 12,8 C 12,8 C 9,4 C 87 % 995,2 hPa 0,0 l/m 2 min 0 min 171 W/m 3,2 km/h (1 Bft) 93,62 %
26.10.2023 15:34 12,8 C 12,8 C 9,4 C 87 % 995,2 hPa 0,0 l/m 0 min 0 min 168 W/m 3,2 km/h (1 Bft) 93,62 %
26.10.2023 15:36 12,8 C 13,3 C 9,4 C 87 % 995,2 hPa 0,0 l/m 0 min 0 min 153 W/m 3,2 km/h (1 Bft) 95,74 %
26.10.2023 15:42 12,8 C 13,3 C 9,4 C 87 % 995,2 hPa 0,0 l/m 0 min 0 min 137 W/m 6,4 km/h (2 Bft) 100,00 %
26.10.2023 15:44 12,8 C 13,3 C 9,4 C 86 % 995,3 hPa 0,0 l/m 0 min 0 min 124 W/m 9,7 km/h (2 Bft) 100,00 %
26.10.2023 15:46 12,8 C 12,8 C 9,4 C 86 % 995,3 hPa 0,0 l/m 0 min 0 min 110 W/m 3,2 km/h (1 Bft) 96,08 %
26.10.2023 15:48 12,8 C 12,8 C 9,4 C 86 % 995,3 hPa 0,0 l/m 0 min 0 min 100 W/m 12,9 km/h (3 Bft) 93,62 %
26.10.2023 15:50 12,7 C 12,8 C 9,4 C 86 % 995,4 hPa 0,0 l/m 0 min 0 min 101 W/m 3,2 km/h (1 Bft) 91,49 %
26.10.2023 15:52 12,7 C 12,8 C 9,4 C 86 % 995,4 hPa 0,0 l/m 0 min 0 min 112 W/m 3,2 km/h (1 Bft) 94,34 %
26.10.2023 15:54 12,7 C 12,8 C 9,4 C 85 % 995,5 hPa 0,0 l/m 0 min 0 min 114 W/m 6,4 km/h (2 Bft) 95,35 %
26.10.2023 15:56 12,7 C 12,8 C 9,4 C 85 % 995,4 hPa 0,0 l/m 0 min 0 min 118 W/m 3,2 km/h (1 Bft) 95,74 %
26.10.2023 15:58 12,7 C 12,8 C 9,4 C 85 % 995,4 hPa 0,0 l/m 0 min 0 min 127 W/m 6,4 km/h (2 Bft) 97,87 %
26.10.2023 16:00 12,7 C 12,8 C 9,4 C 85 % 995,4 hPa 0,0 l/m 0 min 0 min 125 W/m 3,2 km/h (1 Bft) 97,87 %
26.10.2023 16:02 12,7 C 12,8 C 9,4 C 85 % 995,3 hPa 0,0 l/m 0 min 0 min 111 W/m 3,2 km/h (1 Bft) 97,87 %
26.10.2023 16:04 12,8 C 12,8 C 9,4 C 86 % 995,3 hPa 0,0 l/m 0 min 0 min 101 W/m 3,2 km/h (1 Bft) 97,96 %
26.10.2023 16:06 12,8 C 12,8 C 9,4 C 86 % 995,3 hPa 0,0 l/m 0 min 0 min 104 W/m 3,2 km/h (1 Bft) 100,00 %
26.10.2023 16:08 12,8 C 13,3 C 9,4 C 86 % 995,3 hPa 0,0 l/m 0 min 0 min 116 W/m 3,2 km/h (1 Bft) 100,00 %
26.10.2023 16:10 12,8 C 13,3 C 9,4 C 86 % 995,3 hPa 0,0 l/m 0 min 0 min 124 W/m 3,2 km/h (1 Bft) 100,00 %
26.10.2023 16:12 12,8 C 13,3 C 9,4 C 86 % 995,3 hPa 0,0 l/m 0 min 0 min 124 W/m 6,4 km/h (2 Bft) 97,87 %
26.10.2023 16:14 12,8 C 12,8 C 9,4 C 86 % 995,3 hPa 0,0 l/m 0 min 0 min 113 W/m 3,2 km/h (1 Bft) 95,74 %
26.10.2023 16:16 12,8 C 12,8 C 9,4 C 85 % 995,2 hPa 0,0 l/m 0 min 0 min 89 W/m 3,2 km/h (1 Bft) 100,00 %
26.10.2023 16:18 12,8 C 12,8 C 8,9 C 85 % 995,3 hPa 0,0 l/m 0 min 0 min 72 W/m 3,2 km/h (1 Bft) 100,00 %
26.10.2023 16:20 12,8 C 12,2 C 8,9 C 85 % 995,2 hPa 0,0 l/m 0 min 0 min 67 W/m 3,2 km/h (1 Bft) 100,00 %
26.10.2023 16:22 12,7 C 12,2 C 8,9 C 85 % 995,2 hPa 0,0 l/m 0 min 0 min 70 W/m 0,0 km/h (0 Bft) 100,00 %
26.10.2023 16:24 12,7 C 12,2 C 8,9 C 85 % 995,1 hPa 0,0 l/m 0 min 0 min 76 W/m 0,0 km/h (0 Bft) 100,00 %
26.10.2023 16:26 12,7 C 12,2 C 8,9 C 86 % 995,1 hPa 0,0 l/m 0 min 0 min 81 W/m 3,2 km/h (1 Bft) 100,00 %
26.10.2023 16:28 12,6 C 12,2 C 8,9 C 86 % 995,2 hPa 0,0 l/m 0 min 0 min 89 W/m 3,2 km/h (1 Bft) 100,00 %
26.10.2023 16:30 12,6 C 12,2 C 8,9 C 86 % 995,2 hPa 0,0 l/m 2 min 0 min 122 W/m 3,2 km/h (1 Bft) 100,00 %
26.10.2023 16:32 12,6 C 12,2 C 8,9 C 86 % 995,2 hPa 0,0 l/m 2 min 0 min 153 W/m 0,0 km/h (0 Bft) 100,00 %
26.10.2023 16:34 12,6 C 12,2 C 8,9 C 86 % 995,2 hPa 0,0 l/m 2 min 0 min 139 W/m 3,2 km/h (1 Bft) 100,00 %
26.10.2023 16:36 12,6 C 12,8 C 8,9 C 87 % 995,2 hPa 0,0 l/m 2 min 0 min 134 W/m 3,2 km/h (1 Bft) 100,00 %
26.10.2023 16:38 12,6 C 12,8 C 8,9 C 87 % 995,2 hPa 0,0 l/m 2 min 0 min 126 W/m 3,2 km/h (1 Bft) 100,00 %
26.10.2023 16:40 12,6 C 12,8 C 8,9 C 87 % 995,2 hPa 0,0 l/m 2 min 0 min 119 W/m 3,2 km/h (1 Bft) 100,00 %
26.10.2023 16:42 12,6 C 12,2 C 8,9 C 87 % 995,2 hPa 0,0 l/m 0 min 0 min 92 W/m 3,2 km/h (1 Bft) 100,00 %
26.10.2023 16:44 12,6 C 12,2 C 8,9 C 87 % 995,2 hPa 0,0 l/m 0 min 0 min 82 W/m 3,2 km/h (1 Bft) 100,00 %
26.10.2023 16:46 12,6 C 12,2 C 8,9 C 87 % 995,2 hPa 0,0 l/m 0 min 0 min 75 W/m 3,2 km/h (1 Bft) 100,00 %
26.10.2023 16:48 12,6 C 12,2 C 8,9 C 87 % 995,3 hPa 0,0 l/m 0 min 0 min 64 W/m 3,2 km/h (1 Bft) 100,00 %
26.10.2023 16:50 12,6 C 12,2 C 8,9 C 87 % 995,3 hPa 0,0 l/m 0 min 0 min 66 W/m 6,4 km/h (2 Bft) 100,00 %
26.10.2023 16:52 12,6 C 12,2 C 8,9 C 87 % 995,2 hPa 0,0 l/m 0 min 0 min 71 W/m 3,2 km/h (1 Bft) 100,00 %
26.10.2023 16:54 12,6 C 12,2 C 8,9 C 87 % 995,2 hPa 0,0 l/m 0 min 0 min 66 W/m 6,4 km/h (2 Bft) 100,00 %
26.10.2023 16:56 12,6 C 12,2 C 8,9 C 87 % 995,2 hPa 0,0 l/m 0 min 0 min 60 W/m 3,2 km/h (1 Bft) 94,29 %
26.10.2023 16:58 12,6 C 12,2 C 8,9 C 87 % 995,1 hPa 0,0 l/m 0 min 0 min 57 W/m 3,2 km/h (1 Bft) 93,22 %
26.10.2023 17:00 12,6 C 12,2 C 8,9 C 87 % 995,1 hPa 0,0 l/m 0 min 0 min 51 W/m 3,2 km/h (1 Bft) 100,00 %
26.10.2023 17:02 12,6 C 12,2 C 8,9 C 87 % 995,1 hPa 0,0 l/m 0 min 0 min 47 W/m 0,0 km/h (0 Bft) 100,00 %
26.10.2023 17:04 12,5 C 12,2 C 8,9 C 87 % 995,1 hPa 0,0 l/m 0 min 0 min 43 W/m 3,2 km/h (1 Bft) 100,00 %
26.10.2023 17:06 12,5 C 11,7 C 8,9 C 87 % 995,1 hPa 0,0 l/m 0 min 0 min 40 W/m 3,2 km/h (1 Bft) 98,28 %
26.10.2023 17:08 12,5 C 11,7 C 8,9 C 87 % 995,0 hPa 0,0 l/m 0 min 0 min 39 W/m 3,2 km/h (1 Bft) 100,00 %
26.10.2023 17:10 12,5 C 11,7 C 8,9 C 87 % 995,0 hPa 0,0 l/m 0 min 0 min 37 W/m 3,2 km/h (1 Bft) 97,14 %
26.10.2023 17:12 12,4 C 11,7 C 8,9 C 87 % 994,9 hPa 0,0 l/m 0 min 0 min 39 W/m 0,0 km/h (0 Bft) 100,00 %
26.10.2023 17:14 12,4 C 11,7 C 8,9 C 87 % 994,9 hPa 0,0 l/m 0 min 0 min 39 W/m 0,0 km/h (0 Bft) 93,62 %
26.10.2023 17:16 12,4 C 11,7 C 8,9 C 88 % 994,8 hPa 0,0 l/m 0 min 0 min 34 W/m 3,2 km/h (1 Bft) 95,92 %
26.10.2023 17:18 12,4 C 12,2 C 8,9 C 88 % 994,9 hPa 0,0 l/m 0 min 0 min 30 W/m 0,0 km/h (0 Bft) 95,65 %
26.10.2023 17:20 12,4 C 12,2 C 8,9 C 88 % 994,9 hPa 0,0 l/m 0 min 0 min 26 W/m 3,2 km/h (1 Bft) 97,87 %
26.10.2023 17:22 12,4 C 12,2 C 8,9 C 88 % 994,9 hPa 0,0 l/m 0 min 0 min 24 W/m 3,2 km/h (1 Bft) 93,62 %
26.10.2023 17:24 12,5 C 12,2 C 8,9 C 88 % 994,9 hPa 0,0 l/m 0 min 0 min 22 W/m 0,0 km/h (0 Bft) 95,74 %
26.10.2023 17:26 12,4 C 12,2 C 8,9 C 88 % 994,8 hPa 0,0 l/m 0 min 0 min 20 W/m 3,2 km/h (1 Bft) 97,87 %
26.10.2023 17:28 12,4 C 12,2 C 8,9 C 88 % 994,8 hPa 0,0 l/m 0 min 0 min 18 W/m 3,2 km/h (1 Bft) 93,62 %
26.10.2023 17:30 12,4 C 12,2 C 8,9 C 88 % 994,8 hPa 0,0 l/m 0 min 0 min 17 W/m 0,0 km/h (0 Bft) 95,65 %
26.10.2023 17:32 12,4 C 12,2 C 8,9 C 88 % 994,8 hPa 0,0 l/m 0 min 0 min 21 W/m 3,2 km/h (1 Bft) 97,87 %
26.10.2023 17:34 12,4 C 12,2 C 8,9 C 88 % 994,8 hPa 0,0 l/m 0 min 0 min 29 W/m 0,0 km/h (0 Bft) 95,74 %
26.10.2023 17:36 12,4 C 12,2 C 8,9 C 88 % 994,8 hPa 0,0 l/m 0 min 0 min 33 W/m 0,0 km/h (0 Bft) 93,62 %
26.10.2023 17:38 12,4 C 12,2 C 8,9 C 88 % 994,8 hPa 0,0 l/m 0 min 0 min 29 W/m 3,2 km/h (1 Bft) 95,74 %
26.10.2023 17:40 12,5 C 12,2 C 8,9 C 88 % 994,9 hPa 0,0 l/m 0 min 0 min 25 W/m 3,2 km/h (1 Bft) 95,74 %
26.10.2023 17:42 12,5 C 12,2 C 8,9 C 89 % 994,9 hPa 0,0 l/m 0 min 0 min 21 W/m 0,0 km/h (0 Bft) 93,62 %
26.10.2023 17:44 12,5 C 11,7 C 8,3 C 89 % 994,9 hPa 0,0 l/m 0 min 0 min 19 W/m 6,4 km/h (2 Bft) 95,65 %
26.10.2023 17:46 12,4 C 11,7 C 8,3 C 89 % 994,9 hPa 0,0 l/m 0 min 0 min 19 W/m 6,4 km/h (2 Bft) 95,74 %
26.10.2023 17:48 12,4 C 11,7 C 8,3 C 88 % 994,8 hPa 0,0 l/m 0 min 0 min 18 W/m 0,0 km/h (0 Bft) 95,74 %
26.10.2023 17:50 12,4 C 11,7 C 8,3 C 89 % 994,8 hPa 0,0 l/m 0 min 0 min 15 W/m 3,2 km/h (1 Bft) 95,74 %
26.10.2023 17:52 12,4 C 11,7 C 8,3 C 89 % 994,8 hPa 0,0 l/m 0 min 0 min 14 W/m 6,4 km/h (2 Bft) 95,74 %
26.10.2023 17:54 12,4 C 11,7 C 8,3 C 89 % 994,8 hPa 0,0 l/m 0 min 0 min 14 W/m 3,2 km/h (1 Bft) 93,62 %
26.10.2023 17:56 12,3 C 11,7 C 8,3 C 89 % 994,7 hPa 0,0 l/m 0 min 0 min 16 W/m 12,9 km/h (3 Bft) 91,49 %
26.10.2023 17:58 12,3 C 11,7 C 8,3 C 89 % 994,6 hPa 0,0 l/m 0 min 0 min 16 W/m 3,2 km/h (1 Bft) 91,30 %
26.10.2023 18:00 12,3 C 11,7 C 8,3 C 89 % 994,6 hPa 0,0 l/m 0 min 0 min 12 W/m 3,2 km/h (1 Bft) 93,62 %
26.10.2023 18:02 12,3 C 11,7 C 8,3 C 89 % 994,6 hPa 0,0 l/m 0 min 0 min 7 W/m 6,4 km/h (2 Bft) 93,62 %
26.10.2023 18:04 12,2 C 11,7 C 8,3 C 89 % 994,6 hPa 0,0 l/m 0 min 0 min 5 W/m 6,4 km/h (2 Bft) 92,00 %
26.10.2023 18:08 12,2 C 11,7 C 8,3 C 89 % 994,6 hPa 0,0 l/m 0 min 0 min 2 W/m 3,2 km/h (1 Bft) 95,45 %
26.10.2023 18:10 12,2 C 11,7 C 8,3 C 89 % 994,8 hPa 0,0 l/m 0 min 0 min 0 W/m 0,0 km/h (0 Bft) 98,08 %
26.10.2023 18:12 12,2 C 11,7 C 8,3 C 89 % 994,8 hPa 0,0 l/m 0 min 0 min 0 W/m 3,2 km/h (1 Bft) 97,87 %
26.10.2023 18:14 12,1 C 11,7 C 8,3 C 89 % 994,8 hPa 0,0 l/m 0 min 0 min 0 W/m 0,0 km/h (0 Bft) 97,87 %
26.10.2023 18:16 12,1 C 11,7 C 8,3 C 89 % 994,8 hPa 0,0 l/m 0 min 0 min 0 W/m 3,2 km/h (1 Bft) 97,87 %
26.10.2023 18:18 12,1 C 11,7 C 8,3 C 89 % 994,8 hPa 0,0 l/m 0 min 0 min 0 W/m 3,2 km/h (1 Bft) 97,87 %
26.10.2023 18:20 12,1 C 11,7 C 8,3 C 89 % 994,8 hPa 0,0 l/m 0 min 0 min 0 W/m 0,0 km/h (0 Bft) 100,00 %
26.10.2023 18:22 12,1 C 11,7 C 8,3 C 89 % 994,8 hPa 0,0 l/m 0 min 0 min 0 W/m 3,2 km/h (1 Bft) 97,87 %
26.10.2023 18:24 12,1 C 11,7 C 8,3 C 89 % 994,9 hPa 0,0 l/m 0 min 0 min 0 W/m 3,2 km/h (1 Bft) 93,48 %
26.10.2023 18:26 12,1 C 11,7 C 8,3 C 89 % 994,9 hPa 0,0 l/m 0 min 0 min 0 W/m 3,2 km/h (1 Bft) 89,36 %
26.10.2023 18:28 12,0 C 11,7 C 8,3 C 89 % 995,0 hPa 0,0 l/m 0 min 0 min 0 W/m 0,0 km/h (0 Bft) 97,87 %
26.10.2023 18:30 12,0 C 11,7 C 8,3 C 89 % 995,0 hPa 0,0 l/m 0 min 0 min 0 W/m 0,0 km/h (0 Bft) 97,87 %
26.10.2023 18:32 11,9 C 11,7 C 8,3 C 89 % 995,0 hPa 0,0 l/m 0 min 0 min 0 W/m 0,0 km/h (0 Bft) 97,87 %
26.10.2023 18:34 11,9 C 11,7 C 8,3 C 90 % 995,0 hPa 0,0 l/m 0 min 0 min 0 W/m 0,0 km/h (0 Bft) 97,87 %
26.10.2023 18:36 11,9 C 11,1 C 8,3 C 90 % 995,0 hPa 0,0 l/m 0 min 0 min 0 W/m 0,0 km/h (0 Bft) 97,87 %
26.10.2023 18:38 11,9 C 11,1 C 8,3 C 90 % 995,0 hPa 0,0 l/m 0 min 0 min 0 W/m 0,0 km/h (0 Bft) 97,83 %
26.10.2023 18:40 11,9 C 11,1 C 8,3 C 90 % 995,0 hPa 0,0 l/m 0 min 0 min 0 W/m 0,0 km/h (0 Bft) 97,87 %
26.10.2023 18:42 11,9 C 11,1 C 8,3 C 90 % 995,0 hPa 0,0 l/m 0 min 0 min 0 W/m 0,0 km/h (0 Bft) 95,74 %
26.10.2023 18:44 11,9 C 11,1 C 8,3 C 90 % 995,0 hPa 0,0 l/m 0 min 0 min 0 W/m 3,2 km/h (1 Bft) 95,74 %
26.10.2023 18:46 11,9 C 11,1 C 8,3 C 90 % 995,1 hPa 0,0 l/m 0 min 0 min 0 W/m 0,0 km/h (0 Bft) 95,74 %
26.10.2023 18:48 11,9 C 11,1 C 7,8 C 90 % 995,1 hPa 0,0 l/m 0 min 0 min 0 W/m 0,0 km/h (0 Bft) 97,87 %
26.10.2023 18:50 11,9 C 11,1 C 7,8 C 90 % 995,1 hPa 0,0 l/m 0 min 0 min 0 W/m 0,0 km/h (0 Bft) 100,00 %
26.10.2023 18:52 11,9 C 11,1 C 7,8 C 90 % 995,1 hPa 0,0 l/m 0 min 0 min 0 W/m 0,0 km/h (0 Bft) 100,00 %
26.10.2023 18:54 11,9 C 11,7 C 7,8 C 90 % 995,0 hPa 0,0 l/m 0 min 0 min 0 W/m 3,2 km/h (1 Bft) 100,00 %
26.10.2023 18:56 11,9 C 11,7 C 7,8 C 91 % 995,0 hPa 0,0 l/m 0 min 0 min 0 W/m 0,0 km/h (0 Bft) 97,87 %
26.10.2023 18:58 12,0 C 11,7 C 7,8 C 91 % 995,0 hPa 0,0 l/m 0 min 0 min 0 W/m 3,2 km/h (1 Bft) 100,00 %
26.10.2023 19:00 11,9 C 11,7 C 7,8 C 91 % 995,0 hPa 0,0 l/m 0 min 0 min 0 W/m 3,2 km/h (1 Bft) 97,87 %
26.10.2023 19:02 11,9 C 11,7 C 7,8 C 91 % 995,0 hPa 0,0 l/m 0 min 0 min 0 W/m 6,4 km/h (2 Bft) 97,87 %
26.10.2023 19:04 11,9 C 11,7 C 7,8 C 91 % 994,9 hPa 0,0 l/m 0 min 0 min 0 W/m 3,2 km/h (1 Bft) 97,92 %
26.10.2023 19:06 11,9 C 11,7 C 7,8 C 91 % 994,8 hPa 0,0 l/m 0 min 0 min 0 W/m 3,2 km/h (1 Bft) 100,00 %
26.10.2023 19:08 11,9 C 11,1 C 7,8 C 91 % 994,9 hPa 0,0 l/m 0 min 0 min 0 W/m 0,0 km/h (0 Bft) 95,65 %
26.10.2023 19:10 11,9 C 11,1 C 7,8 C 91 % 994,8 hPa 0,0 l/m 0 min 0 min 0 W/m 0,0 km/h (0 Bft) 97,87 %
26.10.2023 19:12 11,8 C 11,1 C 7,8 C 91 % 994,8 hPa 0,0 l/m 0 min 0 min 0 W/m 0,0 km/h (0 Bft) 100,00 %
26.10.2023 19:14 11,8 C 11,1 C 7,8 C 91 % 994,9 hPa 0,0 l/m 0 min 0 min 0 W/m 0,0 km/h (0 Bft) 100,00 %
26.10.2023 19:16 11,8 C 11,1 C 7,8 C 91 % 994,8 hPa 0,0 l/m 0 min 0 min 0 W/m 0,0 km/h (0 Bft) 100,00 %
26.10.2023 19:18 11,8 C 11,1 C 7,8 C 91 % 994,9 hPa 0,0 l/m 0 min 0 min 0 W/m 0,0 km/h (0 Bft) 97,87 %
26.10.2023 19:20 11,8 C 11,1 C 7,8 C 91 % 994,8 hPa 0,0 l/m 0 min 0 min 0 W/m 0,0 km/h (0 Bft) 97,83 %
26.10.2023 19:22 11,8 C 11,1 C 7,8 C 91 % 994,8 hPa 0,0 l/m 0 min 0 min 0 W/m 0,0 km/h (0 Bft) 97,87 %
26.10.2023 19:24 11,8 C 11,1 C 7,8 C 92 % 994,8 hPa 0,0 l/m 0 min 0 min 0 W/m 0,0 km/h (0 Bft) 97,87 %
26.10.2023 19:26 11,7 C 11,1 C 7,8 C 91 % 994,8 hPa 0,0 l/m 0 min 0 min 0 W/m 0,0 km/h (0 Bft) 97,87 %
26.10.2023 19:28 11,7 C 11,1 C 7,8 C 92 % 994,7 hPa 0,0 l/m 0 min 0 min 0 W/m 0,0 km/h (0 Bft) 97,87 %
26.10.2023 19:30 11,7 C 11,1 C 7,8 C 92 % 994,7 hPa 0,0 l/m 0 min 0 min 0 W/m 0,0 km/h (0 Bft) 97,87 %
26.10.2023 19:32 11,7 C 11,1 C 7,8 C 92 % 994,7 hPa 0,0 l/m 0 min 0 min 0 W/m 0,0 km/h (0 Bft) 93,62 %
26.10.2023 19:34 11,7 C 11,1 C 7,8 C 92 % 994,7 hPa 0,0 l/m 0 min 0 min 0 W/m 0,0 km/h (0 Bft) 95,65 %
26.10.2023 19:36 11,7 C 11,1 C 7,8 C 92 % 994,6 hPa 0,0 l/m 0 min 0 min 0 W/m 0,0 km/h (0 Bft) 97,87 %
26.10.2023 19:38 11,7 C 11,1 C 7,8 C 92 % 994,6 hPa 0,0 l/m 0 min 0 min 0 W/m 0,0 km/h (0 Bft) 97,87 %
26.10.2023 19:40 11,7 C 11,1 C 7,8 C 92 % 994,6 hPa 0,0 l/m 0 min 0 min 0 W/m 0,0 km/h (0 Bft) 97,87 %
26.10.2023 19:42 11,6 C 11,1 C 7,8 C 92 % 994,7 hPa 0,0 l/m 0 min 0 min 0 W/m 0,0 km/h (0 Bft) 95,74 %
26.10.2023 19:44 11,6 C 11,1 C 7,8 C 92 % 994,8 hPa 0,0 l/m 0 min 0 min 0 W/m 0,0 km/h (0 Bft) 95,74 %
26.10.2023 19:46 11,6 C 11,1 C 7,8 C 92 % 994,8 hPa 0,0 l/m 0 min 0 min 0 W/m 0,0 km/h (0 Bft) 97,87 %
26.10.2023 19:48 11,6 C 11,1 C 7,8 C 92 % 994,8 hPa 0,0 l/m 0 min 0 min 0 W/m 0,0 km/h (0 Bft) 100,00 %
26.10.2023 19:50 11,6 C 11,1 C 7,8 C 92 % 994,8 hPa 0,0 l/m 0 min 0 min 0 W/m 0,0 km/h (0 Bft) 100,00 %
26.10.2023 19:52 11,6 C 11,1 C 7,8 C 93 % 994,8 hPa 0,0 l/m 0 min 0 min 0 W/m 0,0 km/h (0 Bft) 97,87 %
26.10.2023 19:54 11,6 C 11,1 C 7,8 C 93 % 994,8 hPa 0,0 l/m 0 min 0 min 0 W/m 0,0 km/h (0 Bft) 95,74 %
26.10.2023 19:56 11,6 C 11,1 C 7,8 C 92 % 994,8 hPa 0,0 l/m 0 min 0 min 0 W/m 0,0 km/h (0 Bft) 97,87 %
26.10.2023 19:58 11,6 C 11,1 C 7,8 C 92 % 994,8 hPa 0,0 l/m 0 min 0 min 0 W/m 0,0 km/h (0 Bft) 97,87 %
26.10.2023 20:00 11,6 C 11,1 C 7,8 C 93 % 994,8 hPa 0,0 l/m 0 min 0 min 0 W/m 0,0 km/h (0 Bft) 97,87 %
26.10.2023 20:02 11,5 C 10,6 C 7,8 C 93 % 994,8 hPa 0,0 l/m 0 min 0 min 0 W/m 0,0 km/h (0 Bft) 97,83 %
26.10.2023 20:04 11,5 C 10,6 C 7,8 C 93 % 994,7 hPa 0,0 l/m 0 min 0 min 0 W/m 0,0 km/h (0 Bft) 97,87 %
26.10.2023 20:06 11,5 C 10,6 C 7,8 C 93 % 994,7 hPa 0,0 l/m 0 min 0 min 0 W/m 0,0 km/h (0 Bft) 97,87 %
26.10.2023 20:08 11,5 C 10,6 C 7,8 C 93 % 994,6 hPa 0,0 l/m 0 min 0 min 0 W/m 0,0 km/h (0 Bft) 97,87 %
26.10.2023 20:10 11,4 C 10,6 C 7,8 C 93 % 994,6 hPa 0,0 l/m 0 min 0 min 0 W/m 0,0 km/h (0 Bft) 95,74 %
26.10.2023 20:12 11,4 C 10,6 C 7,8 C 93 % 994,6 hPa 0,0 l/m 0 min 0 min 0 W/m 0,0 km/h (0 Bft) 95,74 %
26.10.2023 20:14 11,4 C 10,6 C 7,8 C 93 % 994,6 hPa 0,0 l/m 0 min 0 min 0 W/m 0,0 km/h (0 Bft) 95,74 %
26.10.2023 20:16 11,4 C 10,6 C 7,8 C 93 % 994,6 hPa 0,0 l/m 0 min 0 min 0 W/m 0,0 km/h (0 Bft) 97,87 %
26.10.2023 20:18 11,4 C 10,6 C 7,8 C 93 % 994,7 hPa 0,0 l/m 0 min 0 min 0 W/m 0,0 km/h (0 Bft) 91,30 %
26.10.2023 20:20 11,4 C 10,6 C 7,8 C 93 % 994,7 hPa 0,0 l/m 0 min 0 min 0 W/m 0,0 km/h (0 Bft) 97,87 %
26.10.2023 20:22 11,4 C 10,6 C 7,8 C 93 % 994,6 hPa 0,0 l/m 0 min 0 min 0 W/m 0,0 km/h (0 Bft) 97,87 %
26.10.2023 20:24 11,4 C 10,6 C 7,8 C 93 % 994,7 hPa 0,0 l/m 0 min 0 min 0 W/m 0,0 km/h (0 Bft) 97,87 %
26.10.2023 20:26 11,4 C 10,6 C 7,8 C 93 % 994,7 hPa 0,0 l/m 0 min 0 min 0 W/m 0,0 km/h (0 Bft) 97,87 %
26.10.2023 20:28 11,4 C 10,6 C 7,8 C 93 % 994,7 hPa 0,0 l/m 0 min 0 min 0 W/m 0,0 km/h (0 Bft) 95,74 %
26.10.2023 20:30 11,4 C 10,6 C 7,8 C 93 % 994,6 hPa 0,0 l/m 0 min 0 min 0 W/m 0,0 km/h (0 Bft) 97,83 %
26.10.2023 20:32 11,4 C 10,6 C 7,8 C 93 % 994,6 hPa 0,0 l/m 0 min 0 min 0 W/m 0,0 km/h (0 Bft) 97,87 %
26.10.2023 20:34 11,3 C 10,6 C 7,8 C 93 % 994,6 hPa 0,0 l/m 0 min 0 min 0 W/m 0,0 km/h (0 Bft) 95,74 %
26.10.2023 20:36 11,3 C 10,6 C 7,8 C 94 % 994,6 hPa 0,0 l/m 0 min 0 min 0 W/m 0,0 km/h (0 Bft) 97,87 %
26.10.2023 20:38 11,3 C 10,6 C 7,8 C 94 % 994,6 hPa 0,0 l/m 0 min 0 min 0 W/m 0,0 km/h (0 Bft) 97,87 %
26.10.2023 20:40 11,3 C 10,6 C 7,8 C 94 % 994,6 hPa 0,0 l/m 0 min 0 min 0 W/m 0,0 km/h (0 Bft) 95,74 %
26.10.2023 20:42 11,3 C 10,6 C 7,8 C 94 % 994,6 hPa 0,0 l/m 0 min 0 min 0 W/m 0,0 km/h (0 Bft) 100,00 %
26.10.2023 20:44 11,3 C 10,6 C 7,8 C 94 % 994,6 hPa 0,0 l/m 0 min 0 min 0 W/m 0,0 km/h (0 Bft) 100,00 %
26.10.2023 20:46 11,3 C 10,6 C 7,8 C 94 % 994,6 hPa 0,0 l/m 0 min 0 min 0 W/m 0,0 km/h (0 Bft) 97,87 %
26.10.2023 20:48 11,3 C 10,6 C 7,8 C 94 % 994,6 hPa 0,0 l/m 0 min 0 min 0 W/m 0,0 km/h (0 Bft) 100,00 %
26.10.2023 20:50 11,3 C 10,6 C 7,8 C 94 % 994,5 hPa 0,0 l/m 0 min 0 min 0 W/m 0,0 km/h (0 Bft) 97,87 %
26.10.2023 20:52 11,3 C 10,6 C 7,8 C 94 % 994,6 hPa 0,0 l/m 0 min 0 min 0 W/m 0,0 km/h (0 Bft) 100,00 %
26.10.2023 20:54 11,3 C 10,6 C 7,8 C 94 % 994,6 hPa 0,0 l/m 0 min 0 min 0 W/m 0,0 km/h (0 Bft) 97,87 %
26.10.2023 20:56 11,3 C 10,6 C 7,8 C 94 % 994,5 hPa 0,0 l/m 0 min 0 min 0 W/m 0,0 km/h (0 Bft) 97,87 %
26.10.2023 20:58 11,3 C 10,6 C 7,8 C 94 % 994,5 hPa 0,0 l/m 0 min 0 min 0 W/m 0,0 km/h (0 Bft) 100,00 %
26.10.2023 21:00 11,3 C 10,6 C 7,8 C 94 % 994,6 hPa 0,0 l/m 0 min 0 min 0 W/m 0,0 km/h (0 Bft) 97,87 %
26.10.2023 21:02 11,3 C 10,6 C 7,8 C 94 % 994,5 hPa 0,0 l/m 0 min 0 min 0 W/m 0,0 km/h (0 Bft) 97,87 %
26.10.2023 21:04 11,3 C 10,6 C 7,8 C 94 % 994,5 hPa 0,0 l/m 0 min 0 min 0 W/m 0,0 km/h (0 Bft) 97,67 %
26.10.2023 21:06 11,3 C 10,6 C 7,8 C 94 % 994,4 hPa 0,0 l/m 0 min 0 min 0 W/m 0,0 km/h (0 Bft) 95,74 %
26.10.2023 21:08 11,3 C 10,6 C 7,8 C 94 % 994,5 hPa 0,0 l/m 0 min 0 min 0 W/m 0,0 km/h (0 Bft) 93,62 %
26.10.2023 21:10 11,3 C 10,6 C 7,8 C 94 % 994,5 hPa 0,0 l/m 0 min 0 min 0 W/m 6,4 km/h (2 Bft) 93,62 %
26.10.2023 21:12 11,3 C 10,6 C 7,8 C 95 % 994,5 hPa 0,0 l/m 0 min 0 min 0 W/m 3,2 km/h (1 Bft) 93,48 %
26.10.2023 21:14 11,3 C 10,6 C 7,8 C 95 % 994,5 hPa 0,0 l/m 0 min 0 min 0 W/m 3,2 km/h (1 Bft) 95,74 %
26.10.2023 21:16 11,3 C 10,6 C 7,8 C 95 % 994,5 hPa 0,0 l/m 0 min 0 min 0 W/m 3,2 km/h (1 Bft) 93,62 %
26.10.2023 21:18 11,3 C 10,6 C 7,8 C 95 % 994,5 hPa 0,0 l/m 0 min 0 min 0 W/m 3,2 km/h (1 Bft) 93,62 %
26.10.2023 21:20 11,2 C 10,6 C 7,8 C 95 % 994,6 hPa 0,0 l/m 0 min 0 min 0 W/m 3,2 km/h (1 Bft) 95,74 %
26.10.2023 21:22 11,2 C 10,6 C 7,8 C 95 % 994,5 hPa 0,0 l/m 0 min 0 min 0 W/m 6,4 km/h (2 Bft) 95,74 %
26.10.2023 21:24 11,2 C 10,6 C 7,8 C 95 % 994,6 hPa 0,0 l/m 0 min 0 min 0 W/m 6,4 km/h (2 Bft) 95,74 %
26.10.2023 21:26 11,2 C 10,6 C 7,8 C 95 % 994,7 hPa 0,0 l/m 0 min 0 min 0 W/m 3,2 km/h (1 Bft) 95,65 %
26.10.2023 21:28 11,2 C 10,6 C 7,8 C 95 % 994,8 hPa 0,0 l/m 0 min 0 min 0 W/m 0,0 km/h (0 Bft) 95,74 %
26.10.2023 21:30 11,2 C 10,6 C 7,8 C 95 % 994,8 hPa 0,0 l/m 0 min 0 min 0 W/m 0,0 km/h (0 Bft) 95,74 %
26.10.2023 21:32 11,2 C 10,6 C 7,8 C 95 % 994,8 hPa 0,0 l/m 0 min 0 min 0 W/m 0,0 km/h (0 Bft) 95,74 %
26.10.2023 21:34 11,2 C 10,6 C 7,8 C 95 % 994,8 hPa 0,0 l/m 0 min 0 min 0 W/m 0,0 km/h (0 Bft) 93,62 %
26.10.2023 21:36 11,2 C 10,6 C 7,8 C 95 % 994,8 hPa 0,0 l/m 0 min 0 min 0 W/m 0,0 km/h (0 Bft) 95,74 %
26.10.2023 21:38 11,2 C 10,6 C 7,8 C 95 % 994,7 hPa 0,0 l/m 0 min 0 min 0 W/m 0,0 km/h (0 Bft) 97,83 %
26.10.2023 21:40 11,2 C 10,6 C 7,8 C 95 % 994,6 hPa 0,0 l/m 0 min 0 min 0 W/m 0,0 km/h (0 Bft) 95,74 %
26.10.2023 21:42 11,2 C 10,6 C 7,8 C 95 % 994,5 hPa 0,0 l/m 0 min 0 min 0 W/m 0,0 km/h (0 Bft) 97,87 %
26.10.2023 21:44 11,2 C 10,6 C 7,8 C 95 % 994,5 hPa 0,0 l/m 0 min 0 min 0 W/m 0,0 km/h (0 Bft) 97,87 %
26.10.2023 21:46 11,2 C 10,6 C 7,8 C 95 % 994,5 hPa 0,0 l/m 0 min 0 min 0 W/m 0,0 km/h (0 Bft) 95,74 %
26.10.2023 21:48 11,2 C 10,6 C 7,8 C 95 % 994,5 hPa 0,0 l/m 0 min 0 min 0 W/m 0,0 km/h (0 Bft) 97,87 %
26.10.2023 21:50 11,2 C 10,6 C 7,8 C 95 % 994,4 hPa 0,0 l/m 0 min 0 min 0 W/m 0,0 km/h (0 Bft) 97,62 %
26.10.2023 21:52 11,2 C 10,6 C 7,8 C 95 % 994,5 hPa 0,0 l/m 0 min 0 min 0 W/m 0,0 km/h (0 Bft) 97,87 %
26.10.2023 21:54 11,2 C 10,6 C 7,8 C 96 % 994,6 hPa 0,0 l/m 0 min 0 min 0 W/m 0,0 km/h (0 Bft) 93,62 %
26.10.2023 21:56 11,2 C 10,6 C 7,8 C 96 % 994,6 hPa 0,0 l/m 0 min 0 min 0 W/m 3,2 km/h (1 Bft) 100,00 %
26.10.2023 21:58 11,2 C 10,6 C 7,8 C 96 % 994,6 hPa 0,0 l/m 0 min 0 min 0 W/m 0,0 km/h (0 Bft) 95,65 %
26.10.2023 22:00 11,2 C 10,6 C 7,8 C 96 % 994,7 hPa 0,0 l/m 0 min 0 min 0 W/m 0,0 km/h (0 Bft) 100,00 %
26.10.2023 22:02 11,1 C 10,6 C 7,8 C 96 % 994,7 hPa 0,0 l/m 0 min 0 min 0 W/m 0,0 km/h (0 Bft) 97,87 %
26.10.2023 22:04 11,1 C 10,6 C 7,8 C 96 % 994,6 hPa 0,0 l/m 0 min 0 min 0 W/m 0,0 km/h (0 Bft) 95,24 %
26.10.2023 22:06 11,1 C 10,6 C 7,8 C 96 % 994,5 hPa 0,0 l/m 0 min 0 min 0 W/m 0,0 km/h (0 Bft) 100,00 %
26.10.2023 22:08 11,1 C 10,6 C 7,8 C 96 % 994,5 hPa 0,0 l/m 0 min 0 min 0 W/m 0,0 km/h (0 Bft) 97,14 %
26.10.2023 22:10 11,1 C 10,6 C 7,8 C 96 % 994,6 hPa 0,0 l/m 0 min 0 min 0 W/m 0,0 km/h (0 Bft) 100,00 %
26.10.2023 22:12 11,1 C 10,6 C 7,8 C 96 % 994,5 hPa 0,0 l/m 0 min 0 min 0 W/m 0,0 km/h (0 Bft) 97,87 %
26.10.2023 22:14 11,1 C 10,6 C 7,8 C 96 % 994,5 hPa 0,0 l/m 0 min 0 min 0 W/m 0,0 km/h (0 Bft) 97,87 %
26.10.2023 22:16 11,1 C 10,6 C 7,8 C 96 % 994,5 hPa 0,0 l/m 0 min 0 min 0 W/m 0,0 km/h (0 Bft) 100,00 %
26.10.2023 22:18 11,1 C 10,6 C 7,8 C 96 % 994,5 hPa 0,0 l/m 0 min 0 min 0 W/m 0,0 km/h (0 Bft) 97,87 %
26.10.2023 22:20 11,1 C 10,6 C 7,8 C 96 % 994,5 hPa 0,0 l/m 0 min 0 min 0 W/m 0,0 km/h (0 Bft) 74,47 %
26.10.2023 22:22 11,1 C 10,6 C 7,8 C 96 % 994,5 hPa 0,0 l/m 0 min 0 min 0 W/m 6,4 km/h (2 Bft) 78,57 %
26.10.2023 22:24 11,1 C 10,6 C 7,8 C 96 % 994,5 hPa 0,0 l/m 0 min 0 min 0 W/m 3,2 km/h (1 Bft) 100,00 %
26.10.2023 22:26 11,1 C 10,6 C 7,8 C 96 % 994,5 hPa 0,0 l/m 0 min 0 min 0 W/m 0,0 km/h (0 Bft) 100,00 %
26.10.2023 22:28 11,1 C 10,6 C 7,8 C 96 % 994,4 hPa 0,0 l/m 0 min 0 min 0 W/m 0,0 km/h (0 Bft) 100,00 %
26.10.2023 22:30 11,1 C 10,6 C 7,8 C 96 % 994,5 hPa 0,0 l/m 0 min 0 min 0 W/m 3,2 km/h (1 Bft) 93,62 %
26.10.2023 22:32 11,1 C 10,6 C 7,8 C 96 % 994,5 hPa 0,0 l/m 0 min 0 min 0 W/m 3,2 km/h (1 Bft) 100,00 %
26.10.2023 22:34 11,1 C 10,6 C 7,8 C 96 % 994,5 hPa 0,0 l/m 0 min 0 min 0 W/m 6,4 km/h (2 Bft) 95,74 %
26.10.2023 22:36 11,1 C 10,6 C 7,8 C 96 % 994,5 hPa 0,0 l/m 0 min 0 min 0 W/m 3,2 km/h (1 Bft) 95,65 %
26.10.2023 22:38 11,0 C 10,6 C 7,8 C 96 % 994,5 hPa 0,0 l/m 0 min 0 min 0 W/m 0,0 km/h (0 Bft) 97,87 %
26.10.2023 22:40 11,0 C 10,6 C 7,8 C 96 % 994,5 hPa 0,0 l/m 0 min 0 min 0 W/m 3,2 km/h (1 Bft) 97,87 %
26.10.2023 22:42 11,0 C 10,6 C 7,8 C 96 % 994,5 hPa 0,0 l/m 0 min 0 min 0 W/m 0,0 km/h (0 Bft) 97,87 %
26.10.2023 22:44 11,0 C 10,6 C 7,8 C 96 % 994,4 hPa 0,0 l/m 0 min 0 min 0 W/m 0,0 km/h (0 Bft) 91,49 %
26.10.2023 22:46 11,0 C 10,6 C 7,8 C 96 % 994,5 hPa 0,0 l/m 0 min 0 min 0 W/m 0,0 km/h (0 Bft) 97,87 %
26.10.2023 22:48 11,0 C 10,6 C 7,8 C 96 % 994,5 hPa 0,0 l/m 0 min 0 min 0 W/m 0,0 km/h (0 Bft) 97,87 %
26.10.2023 22:50 11,0 C 10,6 C 7,8 C 96 % 994,5 hPa 0,0 l/m 0 min 0 min 0 W/m 0,0 km/h (0 Bft) 97,83 %
26.10.2023 22:52 11,0 C 10,6 C 7,8 C 96 % 994,5 hPa 0,0 l/m 0 min 0 min 0 W/m 0,0 km/h (0 Bft) 97,87 %
26.10.2023 22:54 11,0 C 10,6 C 7,8 C 96 % 994,4 hPa 0,0 l/m 0 min 0 min 0 W/m 0,0 km/h (0 Bft) 95,74 %
26.10.2023 22:56 11,0 C 10,6 C 7,8 C 96 % 994,4 hPa 0,0 l/m 0 min 0 min 0 W/m 0,0 km/h (0 Bft) 93,62 %
26.10.2023 22:58 11,0 C 10,6 C 7,8 C 96 % 994,3 hPa 0,0 l/m 0 min 0 min 0 W/m 0,0 km/h (0 Bft) 93,62 %
26.10.2023 23:00 11,0 C 10,6 C 7,8 C 96 % 994,3 hPa 0,0 l/m 0 min 0 min 0 W/m 0,0 km/h (0 Bft) 95,74 %
26.10.2023 23:02 10,9 C 10,6 C 7,8 C 96 % 994,2 hPa 0,0 l/m 0 min 0 min 0 W/m 3,2 km/h (1 Bft) 95,74 %
26.10.2023 23:04 10,9 C 10,0 C 7,8 C 96 % 994,1 hPa 0,0 l/m 0 min 0 min 0 W/m 0,0 km/h (0 Bft) 93,88 %
26.10.2023 23:06 10,9 C 10,0 C 7,8 C 96 % 994,2 hPa 0,0 l/m 0 min 0 min 0 W/m 0,0 km/h (0 Bft) 96,61 %
26.10.2023 23:08 10,9 C 10,0 C 7,8 C 97 % 994,2 hPa 0,0 l/m 0 min 0 min 0 W/m 0,0 km/h (0 Bft) 91,43 %
26.10.2023 23:10 10,9 C 10,0 C 7,8 C 97 % 994,2 hPa 0,0 l/m 0 min 0 min 0 W/m 3,2 km/h (1 Bft) 95,74 %
26.10.2023 23:12 10,9 C 10,0 C 7,2 C 97 % 994,2 hPa 0,0 l/m 0 min 0 min 0 W/m 0,0 km/h (0 Bft) 96,00 %
26.10.2023 23:14 10,9 C 10,0 C 7,2 C 97 % 994,2 hPa 0,0 l/m 0 min 0 min 0 W/m 0,0 km/h (0 Bft) 95,74 %
26.10.2023 23:16 10,9 C 10,0 C 7,2 C 97 % 994,1 hPa 0,0 l/m 0 min 0 min 0 W/m 0,0 km/h (0 Bft) 95,65 %
26.10.2023 23:18 10,9 C 10,0 C 7,2 C 97 % 994,1 hPa 0,0 l/m 0 min 0 min 0 W/m 3,2 km/h (1 Bft) 95,74 %
26.10.2023 23:20 10,9 C 10,0 C 7,2 C 97 % 994,1 hPa 0,0 l/m 0 min 0 min 0 W/m 0,0 km/h (0 Bft) 97,87 %
26.10.2023 23:22 10,8 C 10,0 C 7,2 C 97 % 994,1 hPa 0,0 l/m 0 min 0 min 0 W/m 3,2 km/h (1 Bft) 95,74 %
26.10.2023 23:24 10,8 C 10,0 C 7,2 C 97 % 994,0 hPa 0,0 l/m 0 min 0 min 0 W/m 3,2 km/h (1 Bft) 95,74 %
26.10.2023 23:26 10,8 C 10,0 C 7,2 C 97 % 994,0 hPa 0,0 l/m 0 min 0 min 0 W/m 3,2 km/h (1 Bft) 97,87 %
26.10.2023 23:28 10,8 C 10,0 C 7,2 C 97 % 994,0 hPa 0,0 l/m 0 min 0 min 0 W/m 6,4 km/h (2 Bft) 100,00 %
26.10.2023 23:30 10,8 C 10,0 C 7,2 C 97 % 994,0 hPa 0,0 l/m 0 min 0 min 0 W/m 3,2 km/h (1 Bft) 100,00 %
26.10.2023 23:32 10,8 C 10,0 C 7,2 C 96 % 993,9 hPa 0,0 l/m 0 min 0 min 0 W/m 3,2 km/h (1 Bft) 100,00 %
26.10.2023 23:34 10,7 C 10,0 C 7,2 C 96 % 993,9 hPa 0,0 l/m 0 min 0 min 0 W/m 3,2 km/h (1 Bft) 100,00 %
26.10.2023 23:36 10,7 C 10,0 C 7,2 C 96 % 993,8 hPa 0,0 l/m 0 min 0 min 0 W/m 3,2 km/h (1 Bft) 100,00 %
26.10.2023 23:38 10,7 C 10,0 C 7,2 C 97 % 993,8 hPa 0,0 l/m 0 min 0 min 0 W/m 3,2 km/h (1 Bft) 100,00 %
26.10.2023 23:40 10,7 C 10,0 C 7,2 C 97 % 993,8 hPa 0,0 l/m 0 min 0 min 0 W/m 0,0 km/h (0 Bft) 97,87 %
26.10.2023 23:42 10,7 C 10,0 C 7,2 C 97 % 993,8 hPa 0,0 l/m 0 min 0 min 0 W/m 0,0 km/h (0 Bft) 100,00 %
26.10.2023 23:44 10,7 C 10,0 C 7,2 C 97 % 993,8 hPa 0,0 l/m 0 min 0 min 0 W/m 0,0 km/h (0 Bft) 97,83 %
26.10.2023 23:46 10,7 C 10,0 C 7,2 C 97 % 993,8 hPa 0,0 l/m 0 min 0 min 0 W/m 0,0 km/h (0 Bft) 100,00 %
26.10.2023 23:48 10,6 C 10,0 C 7,2 C 97 % 993,8 hPa 0,0 l/m 0 min 0 min 0 W/m 0,0 km/h (0 Bft) 100,00 %
26.10.2023 23:50 10,7 C 10,0 C 7,2 C 97 % 993,8 hPa 0,0 l/m 0 min 0 min 0 W/m 0,0 km/h (0 Bft) 100,00 %
26.10.2023 23:52 10,6 C 10,0 C 7,2 C 97 % 993,8 hPa 0,0 l/m 0 min 0 min 0 W/m 0,0 km/h (0 Bft) 100,00 %
26.10.2023 23:54 10,6 C 10,0 C 7,2 C 97 % 993,8 hPa 0,0 l/m 0 min 0 min 0 W/m 0,0 km/h (0 Bft) 97,87 %
26.10.2023 23:56 10,6 C 10,0 C 7,2 C 97 % 993,8 hPa 0,0 l/m 0 min 0 min 0 W/m 0,0 km/h (0 Bft) 100,00 %
26.10.2023 23:58 10,6 C 10,0 C 7,2 C 97 % 993,8 hPa 0,0 l/m 0 min 0 min 0 W/m 0,0 km/h (0 Bft) 100,00 %
_ Min-Zeit 08:54 07:28 08:30 15:54 23:36 - - - - 07:50 00:02
Minimum _ 9,0 C 8,3 C 6,1 C 85 % 993,8 hPa - - - - 0,0 km/h (0 Bft) 10,00 %
_ Max-Zeit 15:30 15:12 12:26 00:00 05:16 00:00 11:14 15:00 11:16 04:18 01:30
Maximum _ 12,8 C 13,3 C 9,4 C 100 % 997,1 hPa 0,2 l/m 2 min 2 min 248 W/m 25,7 km/h
N (4 Bft)
100,00 %
Durchschnitt _ 10,7 C 10,5 C 7,7 C 95 % 995,8 hPa #0,2 l/m #32 min. #4 min. 103 W/m 3,9 km/h (1 Bft) 96,59 %
© 2023 W. Hausmann